BAW169 EGLL-ZSPD

Flight info

Callsign BAW169
Flight time N/A
Altitude 33000
Route DET L6 DVR UL9 KONAN UL607 MATUG DCT BOMBI DCT LEPSA DCT RTB DCT PINQI DCT PESAT DCT TEGRI DCT OSTAL DCT LUGEB DCT UDROS UM859 KARDE/N0488F350 UN644 ROLIN N644 ADEKI DCT LEYLA N161 GASBI/K0906F350 N161 GILAK/K0887F370 N161 SARIN/K0896S1070 A368 TCH/K0887S1130 A368 FKG W188 LIKMI DCT DKO W64 LAXIB W560 TODAM B208 SQ/K0887S1190 B208 HFE R343 SASAN SAS91A
Aircraft B77W/H-SDE1E2E3FGHIJ2J3J4J5M1RWXY/LB1D1

Departure

Time 2026-05-07 08:44
Airport London Heathrow Airport (EGLL)

Arrival

Time N/A
Airport Shanghai Pudong International Airport (ZSPD)
Time Latitude Longitude Altitude Speed Heading
2026-05-07 08:16 51.47380 -0.48247 98 ft 0 kts 90°
2026-05-07 08:35 51.47380 -0.48255 97 ft 3 kts 90°
2026-05-07 08:35 51.47380 -0.48281 97 ft 2 kts 90°
2026-05-07 08:35 51.47380 -0.48305 97 ft 2 kts 101°
2026-05-07 08:35 51.47385 -0.48327 97 ft 2 kts 124°
2026-05-07 08:36 51.47395 -0.48345 97 ft 2 kts 143°
2026-05-07 08:36 51.47408 -0.48357 97 ft 2 kts 162°
2026-05-07 08:36 51.47421 -0.48361 97 ft 0 kts 179°
2026-05-07 08:36 51.47425 -0.48361 97 ft 0 kts 181°
2026-05-07 08:40 51.47424 -0.48361 97 ft 1 kts 181°
2026-05-07 08:40 51.47404 -0.48362 97 ft 4 kts 180°
2026-05-07 08:40 51.47362 -0.48360 97 ft 7 kts 179°
2026-05-07 08:41 51.47276 -0.48359 97 ft 16 kts 180°
2026-05-07 08:41 51.47136 -0.48357 97 ft 23 kts 181°
2026-05-07 08:41 51.46968 -0.48355 97 ft 23 kts 180°
2026-05-07 08:41 51.46818 -0.48354 97 ft 19 kts 180°
2026-05-07 08:42 51.46736 -0.48425 97 ft 11 kts 257°
2026-05-07 08:42 51.46740 -0.48552 97 ft 10 kts 271°
2026-05-07 08:42 51.46736 -0.48676 97 ft 11 kts 250°
2026-05-07 08:42 51.46666 -0.48747 97 ft 13 kts 187°
2026-05-07 08:43 51.46569 -0.48780 97 ft 15 kts 190°
2026-05-07 08:43 51.46482 -0.48707 97 ft 16 kts 105°
2026-05-07 08:43 51.46478 -0.48487 97 ft 27 kts 90°
2026-05-07 08:43 51.46480 -0.47756 98 ft 105 kts 90°
2026-05-07 08:44 51.46486 -0.46180 101 ft 175 kts 90°
2026-05-07 08:44 51.46511 -0.44064 642 ft 199 kts 89°
2026-05-07 08:44 51.46547 -0.41961 1851 ft 184 kts 92°
2026-05-07 08:44 51.46184 -0.39982 2188 ft 199 kts 125°
2026-05-07 08:45 51.45253 -0.38191 2483 ft 216 kts 130°
2026-05-07 08:45 51.44279 -0.36252 2904 ft 229 kts 122°
2026-05-07 08:45 51.43608 -0.33834 3288 ft 246 kts 106°
2026-05-07 08:45 51.43171 -0.31134 3798 ft 258 kts 103°
2026-05-07 08:46 51.42768 -0.28304 4522 ft 263 kts 103°
2026-05-07 08:46 51.42375 -0.25432 5239 ft 267 kts 103°
2026-05-07 08:46 51.41984 -0.22536 5879 ft 272 kts 103°
2026-05-07 08:46 51.41573 -0.19529 6058 ft 275 kts 103°
2026-05-07 08:47 51.41164 -0.16547 6072 ft 273 kts 103°
2026-05-07 08:47 51.40759 -0.13605 6074 ft 271 kts 103°
2026-05-07 08:47 51.40352 -0.10655 6074 ft 270 kts 103°
2026-05-07 08:47 51.39948 -0.07729 6075 ft 270 kts 103°
2026-05-07 08:48 51.39542 -0.04801 6076 ft 270 kts 103°
2026-05-07 08:48 51.39133 -0.01855 6076 ft 271 kts 103°
2026-05-07 08:48 51.38724 0.01087 6076 ft 271 kts 103°
2026-05-07 08:48 51.38312 0.04046 6077 ft 272 kts 103°
2026-05-07 08:49 51.37893 0.07045 6076 ft 271 kts 103°
2026-05-07 08:49 51.37485 0.09962 6076 ft 272 kts 103°
2026-05-07 08:49 51.37067 0.12946 6077 ft 272 kts 103°
2026-05-07 08:49 51.36654 0.15883 6076 ft 272 kts 103°
2026-05-07 08:50 51.36240 0.18825 6075 ft 272 kts 103°
2026-05-07 08:50 51.35826 0.21766 6076 ft 272 kts 103°
2026-05-07 08:50 51.35411 0.24704 6075 ft 272 kts 103°
2026-05-07 08:50 51.34992 0.27661 6075 ft 271 kts 103°
2026-05-07 08:51 51.34570 0.30634 6077 ft 271 kts 103°
2026-05-07 08:51 51.34153 0.33571 6076 ft 271 kts 103°
2026-05-07 08:51 51.33741 0.36466 6083 ft 270 kts 103°
2026-05-07 08:51 51.33326 0.39378 6071 ft 270 kts 103°
2026-05-07 08:52 51.32904 0.42326 6083 ft 270 kts 103°
2026-05-07 08:52 51.32486 0.45246 6076 ft 269 kts 103°
2026-05-07 08:52 51.32067 0.48164 6069 ft 269 kts 103°
2026-05-07 08:52 51.31650 0.51065 6079 ft 269 kts 103°
2026-05-07 08:53 51.31231 0.53975 6072 ft 269 kts 103°
2026-05-07 08:53 51.30813 0.56873 6072 ft 269 kts 103°
2026-05-07 08:53 51.30393 0.59777 6076 ft 268 kts 103°
2026-05-07 08:53 51.29889 0.62725 6435 ft 278 kts 106°
2026-05-07 08:54 51.29345 0.65597 7402 ft 271 kts 107°
2026-05-07 08:54 51.28803 0.68509 8059 ft 276 kts 106°
2026-05-07 08:54 51.28257 0.71481 8703 ft 280 kts 106°
2026-05-07 08:54 51.27700 0.74519 9350 ft 284 kts 105°
2026-05-07 08:55 51.27137 0.77595 9974 ft 288 kts 105°
2026-05-07 08:55 51.26572 0.80669 10469 ft 297 kts 106°
2026-05-07 08:55 51.25976 0.83912 10778 ft 314 kts 106°
2026-05-07 08:55 51.25340 0.87361 11107 ft 330 kts 106°
2026-05-07 08:56 51.24683 0.90919 11458 ft 345 kts 106°
2026-05-07 08:56 51.23995 0.94635 11822 ft 359 kts 106°
2026-05-07 08:56 51.23270 0.98543 12197 ft 373 kts 106°
2026-05-07 08:56 51.22527 1.02539 12603 ft 385 kts 106°
2026-05-07 08:57 51.21758 1.06668 13199 ft 392 kts 106°
2026-05-07 08:57 51.20975 1.10861 13888 ft 396 kts 106°
2026-05-07 08:57 51.20185 1.15084 14571 ft 400 kts 106°
2026-05-07 08:57 51.19394 1.19301 15220 ft 404 kts 106°
2026-05-07 08:58 51.18583 1.23618 15869 ft 409 kts 107°
2026-05-07 08:58 51.17770 1.27934 16513 ft 412 kts 107°
2026-05-07 08:58 51.16939 1.32334 17138 ft 416 kts 107°
2026-05-07 08:58 51.16259 1.36843 17734 ft 421 kts 98°
2026-05-07 08:59 51.15972 1.41452 18330 ft 425 kts 94°
2026-05-07 08:59 51.15753 1.46159 18953 ft 428 kts 94°
2026-05-07 08:59 51.15533 1.50876 19562 ft 431 kts 94°
2026-05-07 08:59 51.15310 1.55594 20127 ft 435 kts 94°
2026-05-07 09:00 51.15077 1.60418 20684 ft 438 kts 94°
2026-05-07 09:00 51.14841 1.65251 21228 ft 442 kts 95°
2026-05-07 09:00 51.14597 1.70220 21765 ft 445 kts 95°
2026-05-07 09:00 51.14348 1.75193 22296 ft 449 kts 95°
2026-05-07 09:01 51.14092 1.80278 22821 ft 452 kts 95°
2026-05-07 09:01 51.13839 1.85258 23300 ft 456 kts 95°
2026-05-07 09:01 51.13580 1.90309 23765 ft 459 kts 95°
2026-05-07 09:01 51.13317 1.95378 24225 ft 463 kts 95°
2026-05-07 09:02 51.13049 2.00508 24699 ft 466 kts 95°
2026-05-07 09:02 51.12780 2.05618 25145 ft 469 kts 95°
2026-05-07 09:02 51.12504 2.10800 25576 ft 472 kts 95°
2026-05-07 09:02 51.12224 2.16021 26008 ft 475 kts 95°
2026-05-07 09:03 51.11943 2.21210 26422 ft 478 kts 95°
2026-05-07 09:03 51.11653 2.26521 26822 ft 482 kts 95°
2026-05-07 09:03 51.11362 2.31823 27212 ft 485 kts 95°
2026-05-07 09:03 51.11064 2.37196 27599 ft 489 kts 95°
2026-05-07 09:04 51.10761 2.42611 28012 ft 492 kts 95°
2026-05-07 09:04 51.10458 2.47991 28423 ft 494 kts 95°
2026-05-07 09:04 51.10149 2.53418 28804 ft 498 kts 95°
2026-05-07 09:04 51.09831 2.58972 29178 ft 501 kts 95°
2026-05-07 09:05 51.09420 2.64559 29635 ft 502 kts 100°
2026-05-07 09:05 51.08580 2.70039 30231 ft 500 kts 106°
2026-05-07 09:05 51.07604 2.75503 30862 ft 497 kts 107°
2026-05-07 09:05 51.06631 2.80884 31385 ft 495 kts 107°
2026-05-07 09:06 51.05673 2.86157 31834 ft 495 kts 107°
2026-05-07 09:06 51.04704 2.91481 32274 ft 494 kts 107°
2026-05-07 09:06 51.03723 2.96847 32713 ft 493 kts 107°
2026-05-07 09:06 51.02763 3.02087 33042 ft 493 kts 107°
2026-05-07 09:07 51.00832 3.12575 33062 ft 492 kts 107°
2026-05-07 09:07 50.98915 3.22933 33057 ft 490 kts 107°
2026-05-07 09:08 50.96995 3.33242 33054 ft 490 kts 107°
2026-05-07 09:08 50.95068 3.43539 33054 ft 490 kts 107°
2026-05-07 09:09 50.93128 3.53845 33055 ft 489 kts 107°
2026-05-07 09:09 50.91177 3.64155 33049 ft 489 kts 107°
2026-05-07 09:10 50.89171 3.74595 33050 ft 490 kts 108°
2026-05-07 09:10 50.87157 3.85004 33053 ft 490 kts 108°
2026-05-07 09:11 50.85142 3.95362 33054 ft 489 kts 107°
2026-05-07 09:11 50.83103 4.05795 33057 ft 490 kts 107°
2026-05-07 09:12 50.81081 4.16083 33059 ft 490 kts 107°
2026-05-07 09:12 50.79012 4.26553 33060 ft 490 kts 107°
2026-05-07 09:13 50.76950 4.36930 33060 ft 489 kts 107°
2026-05-07 09:13 50.74902 4.47183 33062 ft 488 kts 107°
2026-05-07 09:14 50.72829 4.57510 33060 ft 489 kts 107°
2026-05-07 09:14 50.70818 4.67726 33061 ft 489 kts 107°
2026-05-07 09:15 50.68803 4.78142 33058 ft 489 kts 107°
2026-05-07 09:15 50.66787 4.88490 33053 ft 489 kts 107°
2026-05-07 09:16 50.64728 4.98767 33056 ft 487 kts 108°
2026-05-07 09:16 50.62618 5.09012 33047 ft 488 kts 108°
2026-05-07 09:17 50.60506 5.19217 33051 ft 488 kts 108°
2026-05-07 09:17 50.58388 5.29412 33055 ft 487 kts 108°
2026-05-07 09:18 50.56278 5.39523 33053 ft 488 kts 108°
2026-05-07 09:18 50.54158 5.49629 33051 ft 488 kts 107°
2026-05-07 09:19 50.52023 5.59756 33048 ft 488 kts 107°
2026-05-07 09:19 50.50455 5.70129 33050 ft 487 kts 101°
2026-05-07 09:20 50.49096 5.80767 33050 ft 486 kts 101°
2026-05-07 09:20 50.47800 5.90761 33035 ft 485 kts 101°
2026-05-07 09:21 50.46415 6.01346 33029 ft 487 kts 101°
2026-05-07 09:21 50.45255 6.10130 33029 ft 486 kts 101°
2026-05-07 09:22 50.45213 6.10449 33029 ft 486 kts 101°
2026-05-07 09:22 50.43859 6.20634 33026 ft 486 kts 101°
2026-05-07 09:23 50.42465 6.31039 33017 ft 485 kts 101°
2026-05-07 09:23 50.41068 6.41368 33022 ft 484 kts 101°
2026-05-07 09:24 50.39650 6.51670 33015 ft 484 kts 101°
2026-05-07 09:24 50.38212 6.62046 33010 ft 484 kts 101°
2026-05-07 09:25 50.36792 6.72230 33019 ft 484 kts 102°
2026-05-07 09:25 50.35332 6.82622 33007 ft 485 kts 102°
2026-05-07 09:26 50.33846 6.93129 33008 ft 486 kts 102°
2026-05-07 09:26 50.32364 7.03542 33012 ft 485 kts 102°
2026-05-07 09:27 50.30880 7.13886 33007 ft 485 kts 102°
2026-05-07 09:28 50.28628 7.29466 33006 ft 485 kts 102°
2026-05-07 09:28 50.27118 7.39819 33003 ft 485 kts 102°
2026-05-07 09:29 50.25598 7.50175 33003 ft 485 kts 102°
2026-05-07 09:29 50.24085 7.60413 32992 ft 485 kts 102°
2026-05-07 09:30 50.22559 7.70671 33000 ft 486 kts 103°
2026-05-07 09:30 50.21003 7.81065 32998 ft 487 kts 103°
2026-05-07 09:31 50.19429 7.91500 32993 ft 486 kts 103°
2026-05-07 09:31 50.17861 8.01840 32991 ft 487 kts 103°
2026-05-07 09:32 50.16272 8.12241 33001 ft 488 kts 103°
2026-05-07 09:32 50.14693 8.22520 33001 ft 487 kts 103°
2026-05-07 09:33 50.13106 8.32775 33000 ft 488 kts 103°
2026-05-07 09:33 50.11509 8.43033 32996 ft 488 kts 103°
2026-05-07 09:34 50.09903 8.53285 33005 ft 488 kts 103°
2026-05-07 09:34 50.08281 8.63576 32999 ft 490 kts 103°
2026-05-07 09:35 50.06638 8.73938 33001 ft 489 kts 104°
2026-05-07 09:35 50.04452 8.84011 32999 ft 490 kts 114°
2026-05-07 09:36 50.01631 8.93774 32999 ft 490 kts 114°
2026-05-07 09:36 49.98789 9.03503 33006 ft 492 kts 114°
2026-05-07 09:37 49.95924 9.13256 32994 ft 492 kts 114°
2026-05-07 09:37 49.93053 9.22977 33000 ft 492 kts 114°
2026-05-07 09:38 49.90196 9.32609 32990 ft 491 kts 114°
2026-05-07 09:38 49.87303 9.42320 32976 ft 491 kts 114°
2026-05-07 09:39 49.84450 9.51855 32974 ft 492 kts 114°
2026-05-07 09:39 49.81765 9.61657 32982 ft 490 kts 107°
2026-05-07 09:40 49.79762 9.71785 32977 ft 492 kts 107°
2026-05-07 09:40 49.77741 9.82052 32974 ft 491 kts 107°
2026-05-07 09:41 49.75729 9.92186 32976 ft 492 kts 107°
2026-05-07 09:41 49.73696 10.02366 32980 ft 492 kts 107°
2026-05-07 09:42 49.71653 10.12538 32977 ft 492 kts 107°
2026-05-07 09:42 49.69600 10.22698 32975 ft 492 kts 107°
2026-05-07 09:43 49.67538 10.32850 32981 ft 494 kts 107°
2026-05-07 09:43 49.65460 10.43030 32972 ft 494 kts 108°
2026-05-07 09:44 49.63387 10.53130 32981 ft 494 kts 108°
2026-05-07 09:44 49.61309 10.63205 32981 ft 493 kts 108°
2026-05-07 09:45 49.59197 10.73388 32970 ft 493 kts 109°
2026-05-07 09:45 49.57130 10.83307 32974 ft 491 kts 109°
2026-05-07 09:46 49.55020 10.93384 32977 ft 491 kts 109°
2026-05-07 09:46 49.52905 11.03434 32982 ft 491 kts 109°
2026-05-07 09:47 49.50787 11.13446 32982 ft 491 kts 109°
2026-05-07 09:47 49.48632 11.23576 32977 ft 492 kts 110°
2026-05-07 09:48 49.46070 11.33304 32973 ft 491 kts 114°
2026-05-07 09:48 49.43407 11.42950 32968 ft 491 kts 115°
2026-05-07 09:49 49.40722 11.52635 32974 ft 492 kts 115°
2026-05-07 09:49 49.38036 11.62288 32978 ft 491 kts 115°
2026-05-07 09:50 49.35323 11.72000 32973 ft 491 kts 116°
2026-05-07 09:50 49.32584 11.81767 32974 ft 491 kts 116°
2026-05-07 09:51 49.29860 11.91439 32983 ft 491 kts 116°
2026-05-07 09:51 49.27137 12.01066 32973 ft 490 kts 116°
2026-05-07 09:52 49.24397 12.10718 32972 ft 491 kts 117°
2026-05-07 09:52 49.21625 12.20444 32975 ft 491 kts 116°
2026-05-07 09:53 49.18881 12.30031 32973 ft 490 kts 117°
2026-05-07 09:53 49.16136 12.39582 32983 ft 491 kts 117°
2026-05-07 09:54 49.13382 12.49128 32980 ft 489 kts 117°
2026-05-07 09:54 49.10633 12.58620 32990 ft 490 kts 117°
2026-05-07 09:55 49.07869 12.68127 32984 ft 488 kts 118°
2026-05-07 09:55 49.05076 12.77692 32979 ft 490 kts 119°
2026-05-07 09:56 49.02257 12.87309 32977 ft 489 kts 119°
2026-05-07 09:56 48.99451 12.96844 32984 ft 489 kts 119°
2026-05-07 09:57 48.96645 13.06345 32980 ft 488 kts 119°
2026-05-07 09:57 48.93811 13.15898 32991 ft 491 kts 120°
2026-05-07 09:58 48.90982 13.25403 32991 ft 487 kts 120°
2026-05-07 09:58 48.88172 13.34803 32991 ft 488 kts 120°
2026-05-07 09:59 48.85353 13.44200 32990 ft 487 kts 120°
2026-05-07 09:59 48.82515 13.53622 32987 ft 487 kts 120°
2026-05-07 10:00 48.79655 13.63079 32986 ft 488 kts 120°
2026-05-07 10:00 48.76787 13.72531 32986 ft 486 kts 121°
2026-05-07 10:01 48.73933 13.81898 32979 ft 488 kts 121°
2026-05-07 10:01 48.71080 13.91228 32983 ft 486 kts 122°
2026-05-07 10:02 48.68289 14.00333 32976 ft 487 kts 121°
2026-05-07 10:02 48.65481 14.09735 32977 ft 487 kts 121°
2026-05-07 10:03 48.62642 14.19210 32978 ft 485 kts 121°
2026-05-07 10:03 48.59822 14.28577 32980 ft 489 kts 121°
2026-05-07 10:04 48.56995 14.37931 32981 ft 486 kts 121°
2026-05-07 10:04 48.54172 14.47232 32989 ft 488 kts 121°
2026-05-07 10:05 48.51329 14.56566 32988 ft 486 kts 121°
2026-05-07 10:05 48.48504 14.65799 32985 ft 489 kts 122°
2026-05-07 10:06 48.45625 14.75181 32977 ft 484 kts 122°
2026-05-07 10:06 48.42862 14.84143 32980 ft 487 kts 122°
2026-05-07 10:07 48.39957 14.93534 32983 ft 488 kts 122°
2026-05-07 10:07 48.37066 15.02850 32977 ft 484 kts 122°
2026-05-07 10:08 48.34172 15.12130 32975 ft 487 kts 122°
2026-05-07 10:08 48.31292 15.21342 32972 ft 486 kts 122°
2026-05-07 10:09 48.28414 15.30508 32972 ft 486 kts 122°
2026-05-07 10:09 48.25532 15.39655 32972 ft 484 kts 122°
2026-05-07 10:10 48.22641 15.48800 32974 ft 483 kts 122°
2026-05-07 10:10 48.19740 15.57935 32974 ft 484 kts 122°
2026-05-07 10:11 48.16870 15.66948 32975 ft 484 kts 123°
2026-05-07 10:11 48.13908 15.76213 32967 ft 482 kts 123°
2026-05-07 10:12 48.11041 15.85147 32970 ft 485 kts 123°
2026-05-07 10:12 48.08112 15.94247 32975 ft 482 kts 123°
2026-05-07 10:13 48.05150 16.03413 32980 ft 482 kts 123°
2026-05-07 10:13 48.02193 16.12526 32976 ft 483 kts 123°
2026-05-07 10:14 47.99242 16.21593 32975 ft 484 kts 123°
2026-05-07 10:14 47.96287 16.30638 32964 ft 484 kts 122°
2026-05-07 10:15 47.93336 16.39642 32963 ft 485 kts 123°
2026-05-07 10:15 47.90381 16.48627 32966 ft 484 kts 123°
2026-05-07 10:16 47.87373 16.57738 32986 ft 486 kts 122°
2026-05-07 10:16 47.84356 16.66843 32985 ft 486 kts 123°
2026-05-07 10:17 47.81352 16.75882 32982 ft 485 kts 123°
2026-05-07 10:17 47.78282 16.85080 32979 ft 487 kts 123°
2026-05-07 10:18 47.75261 16.94105 32975 ft 485 kts 123°
2026-05-07 10:18 47.72203 17.03208 32976 ft 485 kts 123°
2026-05-07 10:19 47.69256 17.12027 32977 ft 487 kts 122°
2026-05-07 10:19 47.66226 17.21140 32980 ft 488 kts 122°
2026-05-07 10:20 47.63187 17.30243 32980 ft 487 kts 122°
2026-05-07 10:20 47.60146 17.39316 32973 ft 489 kts 122°
2026-05-07 10:21 47.57120 17.48311 32976 ft 489 kts 122°
2026-05-07 10:21 47.54086 17.57302 32973 ft 488 kts 122°
2026-05-07 10:22 47.51025 17.66330 32975 ft 492 kts 123°
2026-05-07 10:22 47.47884 17.75572 32975 ft 491 kts 123°
2026-05-07 10:23 47.44791 17.84637 32988 ft 493 kts 123°
2026-05-07 10:23 47.41680 17.93725 32980 ft 492 kts 123°
2026-05-07 10:24 47.38549 18.02838 32981 ft 493 kts 123°
2026-05-07 10:24 47.35422 18.11902 32981 ft 495 kts 123°
2026-05-07 10:25 47.32308 18.20907 32980 ft 494 kts 123°
2026-05-07 10:25 47.29186 18.29897 32983 ft 496 kts 122°
2026-05-07 10:26 47.26043 18.38921 32976 ft 495 kts 122°
2026-05-07 10:26 47.22907 18.47892 32981 ft 495 kts 122°
2026-05-07 10:27 47.19731 18.56946 32974 ft 496 kts 122°
2026-05-07 10:27 47.16587 18.65879 32971 ft 495 kts 123°
2026-05-07 10:28 47.13362 18.75008 32974 ft 497 kts 123°
2026-05-07 10:28 47.10212 18.83896 32967 ft 497 kts 123°
2026-05-07 10:29 47.06977 18.92996 32968 ft 498 kts 123°
2026-05-07 10:29 47.03759 19.02013 32972 ft 497 kts 122°
2026-05-07 10:30 46.98929 19.15492 32987 ft 498 kts 122°
2026-05-07 10:30 46.95701 19.24464 32986 ft 498 kts 122°
2026-05-07 10:31 46.92476 19.33396 32986 ft 497 kts 122°
2026-05-07 10:31 46.89222 19.42378 33001 ft 498 kts 122°
2026-05-07 10:32 46.85923 19.51451 33012 ft 499 kts 122°
2026-05-07 10:32 46.82634 19.60468 33020 ft 499 kts 122°
2026-05-07 10:33 46.79327 19.69505 33014 ft 500 kts 123°
2026-05-07 10:33 46.75973 19.78639 33011 ft 499 kts 123°
2026-05-07 10:34 46.72675 19.87588 33018 ft 499 kts 123°
2026-05-07 10:34 46.69355 19.96569 33015 ft 500 kts 123°
2026-05-07 10:35 46.66045 20.05491 33019 ft 500 kts 123°
2026-05-07 10:35 46.62733 20.14389 33018 ft 502 kts 123°
2026-05-07 10:36 46.59403 20.23309 33018 ft 502 kts 123°
2026-05-07 10:36 46.56070 20.32205 33019 ft 500 kts 123°
2026-05-07 10:37 46.52740 20.41064 33021 ft 502 kts 122°
2026-05-07 10:37 46.49409 20.49899 33023 ft 501 kts 123°
2026-05-07 10:38 46.46067 20.58730 33026 ft 503 kts 123°
2026-05-07 10:38 46.42683 20.67646 33019 ft 502 kts 123°
2026-05-07 10:39 46.39257 20.76642 33024 ft 501 kts 123°
2026-05-07 10:39 46.35877 20.85488 33025 ft 502 kts 123°
2026-05-07 10:40 46.32485 20.94337 33033 ft 502 kts 123°
2026-05-07 10:40 46.29078 21.03194 33038 ft 502 kts 123°
2026-05-07 10:41 46.25697 21.11975 33035 ft 503 kts 122°
2026-05-07 10:41 46.22761 21.21225 33043 ft 507 kts 117°
2026-05-07 10:42 46.19897 21.30475 33045 ft 506 kts 118°
2026-05-07 10:42 46.17002 21.39712 33046 ft 507 kts 118°
2026-05-07 10:43 46.14098 21.48898 33045 ft 508 kts 118°
2026-05-07 10:43 46.11148 21.58169 33042 ft 509 kts 118°
2026-05-07 10:44 46.08176 21.67462 33037 ft 508 kts 118°
2026-05-07 10:44 46.05161 21.76850 33037 ft 509 kts 118°
2026-05-07 10:45 46.02162 21.86149 33031 ft 508 kts 118°
2026-05-07 10:45 45.99142 21.95476 33038 ft 510 kts 118°
2026-05-07 10:46 45.96120 22.04777 33038 ft 509 kts 118°
2026-05-07 10:46 45.93105 22.14020 33040 ft 510 kts 118°
2026-05-07 10:47 45.90086 22.23241 33042 ft 510 kts 118°
2026-05-07 10:47 45.87027 22.32554 33049 ft 510 kts 118°
2026-05-07 10:48 45.84004 22.41725 33056 ft 510 kts 118°
2026-05-07 10:48 45.80916 22.51058 33068 ft 512 kts 118°
2026-05-07 10:49 45.77861 22.60257 33070 ft 511 kts 118°
2026-05-07 10:49 45.74757 22.69575 33065 ft 511 kts 118°
2026-05-07 10:50 45.71624 22.78944 33064 ft 512 kts 118°
2026-05-07 10:50 45.68521 22.88191 33059 ft 511 kts 118°
2026-05-07 10:51 45.65428 22.97376 33062 ft 511 kts 118°
2026-05-07 10:51 45.62292 23.06654 33057 ft 512 kts 118°
2026-05-07 10:52 45.59173 23.15853 33069 ft 512 kts 118°
2026-05-07 10:52 45.56052 23.25024 33072 ft 513 kts 118°
2026-05-07 10:53 45.52906 23.34236 33082 ft 514 kts 118°
2026-05-07 10:53 45.49730 23.43504 33080 ft 516 kts 118°
2026-05-07 10:54 45.46579 23.52667 33092 ft 517 kts 118°
2026-05-07 10:54 45.43401 23.61879 33106 ft 517 kts 118°
2026-05-07 10:55 45.40202 23.71118 33091 ft 514 kts 118°
2026-05-07 10:55 45.36968 23.80427 33100 ft 517 kts 118°
2026-05-07 10:56 45.33762 23.89623 33098 ft 515 kts 118°
2026-05-07 10:56 45.30558 23.98781 33095 ft 516 kts 118°
2026-05-07 10:57 45.27307 24.08041 33088 ft 518 kts 118°
2026-05-07 10:57 45.24079 24.17203 33088 ft 518 kts 118°
2026-05-07 10:58 45.20816 24.26435 33079 ft 518 kts 118°
2026-05-07 10:58 45.17544 24.35660 33079 ft 520 kts 118°
2026-05-07 10:59 45.14274 24.44850 33080 ft 520 kts 118°
2026-05-07 10:59 45.10990 24.54046 33082 ft 519 kts 118°
2026-05-07 11:00 45.07680 24.63283 33084 ft 520 kts 118°
2026-05-07 11:00 45.04380 24.72463 33076 ft 520 kts 118°
2026-05-07 11:01 45.01056 24.81675 33083 ft 521 kts 118°
2026-05-07 11:01 44.97720 24.90891 33085 ft 521 kts 118°
2026-05-07 11:02 44.94365 25.00129 33084 ft 521 kts 118°
2026-05-07 11:02 44.91009 25.09337 33084 ft 522 kts 118°
2026-05-07 11:03 44.87668 25.18474 33079 ft 521 kts 117°
2026-05-07 11:03 44.84311 25.27624 33078 ft 522 kts 117°
2026-05-07 11:04 44.80955 25.36743 33074 ft 521 kts 117°
2026-05-07 11:04 44.77582 25.45873 33067 ft 521 kts 117°
2026-05-07 11:05 44.74168 25.55087 33062 ft 521 kts 117°
2026-05-07 11:05 44.70776 25.64211 33062 ft 520 kts 117°
2026-05-07 11:06 44.67400 25.73261 33060 ft 520 kts 118°
2026-05-07 11:06 44.63992 25.82366 33061 ft 520 kts 118°
2026-05-07 11:07 44.60567 25.91487 33064 ft 521 kts 118°
2026-05-07 11:07 44.57148 26.00561 33062 ft 520 kts 117°
2026-05-07 11:08 44.53699 26.09686 33063 ft 522 kts 117°
2026-05-07 11:08 44.50287 26.18683 33061 ft 521 kts 117°
2026-05-07 11:09 44.46832 26.27765 33060 ft 523 kts 117°
2026-05-07 11:09 44.43392 26.36778 33062 ft 522 kts 117°
2026-05-07 11:10 44.39979 26.45691 33058 ft 522 kts 117°
2026-05-07 11:10 44.36552 26.54613 33057 ft 523 kts 117°
2026-05-07 11:11 44.33102 26.63564 33056 ft 523 kts 117°
2026-05-07 11:11 44.29599 26.72626 33051 ft 522 kts 118°
2026-05-07 11:12 44.26290 26.81535 33049 ft 521 kts 112°
2026-05-07 11:12 44.23483 26.90991 33057 ft 521 kts 111°
2026-05-07 11:13 44.20693 27.00324 33067 ft 522 kts 111°
2026-05-07 11:13 44.17891 27.09567 33068 ft 522 kts 111°
2026-05-07 11:14 44.15048 27.18866 33069 ft 522 kts 111°
2026-05-07 11:14 44.12198 27.28123 33074 ft 521 kts 111°
2026-05-07 11:15 44.09339 27.37360 33077 ft 521 kts 111°
2026-05-07 11:15 44.06466 27.46604 33088 ft 522 kts 111°
2026-05-07 11:16 44.03585 27.55834 33091 ft 521 kts 111°
2026-05-07 11:16 44.00707 27.65020 33097 ft 520 kts 111°
2026-05-07 11:17 43.97743 27.74446 33096 ft 521 kts 111°
2026-05-07 11:17 43.94850 27.83612 33104 ft 520 kts 112°
2026-05-07 11:18 43.91953 27.92759 33108 ft 520 kts 111°
2026-05-07 11:18 43.89027 28.01965 33098 ft 520 kts 111°
2026-05-07 11:19 43.86048 28.11302 33105 ft 520 kts 111°
2026-05-07 11:19 43.83110 28.20480 33108 ft 520 kts 111°
2026-05-07 11:20 43.80190 28.29573 33108 ft 519 kts 111°
2026-05-07 11:20 43.77256 28.38674 33116 ft 519 kts 111°
2026-05-07 11:21 43.74309 28.47774 33117 ft 519 kts 112°
2026-05-07 11:21 43.70663 28.56379 33126 ft 522 kts 120°
2026-05-07 11:22 43.66767 28.64852 33124 ft 521 kts 120°
2026-05-07 11:22 43.62889 28.73251 33119 ft 522 kts 121°
2026-05-07 11:23 43.58987 28.81677 33133 ft 522 kts 121°
2026-05-07 11:23 43.55062 28.90127 33129 ft 522 kts 121°
2026-05-07 11:24 43.51157 28.98507 33137 ft 524 kts 121°
2026-05-07 11:24 43.47232 29.06907 33139 ft 522 kts 121°
2026-05-07 11:25 43.43315 29.15267 33138 ft 524 kts 121°
2026-05-07 11:25 43.39369 29.23663 33138 ft 523 kts 120°
2026-05-07 11:26 43.35441 29.31996 33140 ft 523 kts 121°
2026-05-07 11:26 43.31493 29.40350 33142 ft 523 kts 120°
2026-05-07 11:27 43.27545 29.48678 33145 ft 523 kts 121°
2026-05-07 11:27 43.23569 29.57045 33146 ft 524 kts 121°
2026-05-07 11:28 43.19584 29.65403 33147 ft 524 kts 121°
2026-05-07 11:28 43.15606 29.73725 33140 ft 523 kts 121°
2026-05-07 11:29 43.11618 29.82045 33140 ft 525 kts 121°
2026-05-07 11:29 43.07621 29.90357 33140 ft 525 kts 121°
2026-05-07 11:30 43.03636 29.98623 33145 ft 522 kts 121°
2026-05-07 11:30 42.99644 30.06880 33142 ft 523 kts 121°
2026-05-07 11:31 42.95637 30.15145 33143 ft 523 kts 121°
2026-05-07 11:31 42.91620 30.23410 33146 ft 524 kts 121°
2026-05-07 11:32 42.85526 30.35901 33134 ft 524 kts 121°
2026-05-07 11:33 42.81510 30.44104 33137 ft 525 kts 121°
2026-05-07 11:33 42.77454 30.52368 33133 ft 525 kts 121°
2026-05-07 11:34 42.74127 30.61108 33135 ft 519 kts 104°
2026-05-07 11:34 42.72665 30.70645 33134 ft 512 kts 93°
2026-05-07 11:35 42.71739 30.80239 33133 ft 510 kts 93°
2026-05-07 11:35 42.70797 30.89727 33133 ft 510 kts 94°
2026-05-07 11:36 42.69832 30.99231 33134 ft 508 kts 94°
2026-05-07 11:36 42.68855 31.08712 33139 ft 509 kts 94°
2026-05-07 11:37 42.67865 31.18188 33137 ft 509 kts 94°
2026-05-07 11:37 42.66864 31.27673 33148 ft 508 kts 94°
2026-05-07 11:38 42.65859 31.37117 33153 ft 507 kts 94°
2026-05-07 11:38 42.64843 31.46577 33149 ft 507 kts 94°
2026-05-07 11:39 42.63818 31.56035 33153 ft 506 kts 94°
2026-05-07 11:39 42.62794 31.65409 33158 ft 505 kts 95°
2026-05-07 11:40 42.61776 31.74666 33155 ft 506 kts 95°
2026-05-07 11:40 42.60735 31.84051 33155 ft 504 kts 95°
2026-05-07 11:41 42.59689 31.93401 33151 ft 503 kts 95°
2026-05-07 11:41 42.58634 32.02779 33151 ft 502 kts 95°
2026-05-07 11:42 42.57586 32.12154 33149 ft 503 kts 95°
2026-05-07 11:42 42.56520 32.21478 33150 ft 502 kts 95°
2026-05-07 11:43 42.55439 32.30855 33152 ft 501 kts 95°
2026-05-07 11:43 42.54347 32.40263 33150 ft 501 kts 95°
2026-05-07 11:44 42.53250 32.49645 33149 ft 501 kts 95°
2026-05-07 11:44 42.52152 32.58976 33150 ft 500 kts 95°
2026-05-07 11:45 42.51050 32.68262 33148 ft 499 kts 96°
2026-05-07 11:45 42.49931 32.77633 33148 ft 499 kts 96°
2026-05-07 11:46 42.48816 32.86898 33146 ft 498 kts 96°
2026-05-07 11:46 42.47695 32.96155 33149 ft 498 kts 96°
2026-05-07 11:47 42.46557 33.05481 33146 ft 497 kts 96°
2026-05-07 11:47 42.45425 33.14691 33146 ft 497 kts 96°
2026-05-07 11:48 42.44280 33.23936 33148 ft 497 kts 96°
2026-05-07 11:48 42.43130 33.33160 33151 ft 496 kts 96°
2026-05-07 11:49 42.41975 33.42356 33148 ft 497 kts 95°
2026-05-07 11:49 42.40816 33.51526 33150 ft 497 kts 95°
2026-05-07 11:50 42.39645 33.60741 33152 ft 496 kts 95°
2026-05-07 11:50 42.38459 33.70007 33146 ft 496 kts 96°
2026-05-07 11:51 42.37275 33.79202 33150 ft 497 kts 96°
2026-05-07 11:51 42.36085 33.88376 33153 ft 496 kts 96°
2026-05-07 11:52 42.34890 33.97556 33155 ft 495 kts 95°
2026-05-07 11:52 42.33699 34.06661 33153 ft 495 kts 96°
2026-05-07 11:53 42.32486 34.15873 33153 ft 495 kts 95°
2026-05-07 11:53 42.31280 34.24967 33158 ft 495 kts 95°
2026-05-07 11:54 42.30061 34.34103 33156 ft 495 kts 96°
2026-05-07 11:54 42.28832 34.43259 33158 ft 495 kts 96°
2026-05-07 11:55 42.27584 34.52482 33159 ft 496 kts 96°
2026-05-07 11:55 42.26337 34.61637 33160 ft 496 kts 96°
2026-05-07 11:56 42.25063 34.70940 33160 ft 497 kts 96°
2026-05-07 11:56 42.23786 34.80198 33163 ft 496 kts 96°
2026-05-07 11:57 42.22509 34.89384 33165 ft 497 kts 96°
2026-05-07 11:57 42.21227 34.98542 33162 ft 498 kts 97°
2026-05-07 11:58 42.19928 35.07762 33169 ft 496 kts 97°
2026-05-07 11:58 42.18628 35.16934 33163 ft 494 kts 97°
2026-05-07 11:59 42.17317 35.26134 33168 ft 492 kts 97°
2026-05-07 11:59 42.16025 35.35145 33172 ft 492 kts 97°
2026-05-07 12:00 42.14719 35.44210 33171 ft 492 kts 97°
2026-05-07 12:00 42.13403 35.53308 33169 ft 492 kts 97°
2026-05-07 12:01 42.12087 35.62349 33175 ft 490 kts 97°
2026-05-07 12:01 42.10768 35.71361 33182 ft 488 kts 98°
2026-05-07 12:02 42.09451 35.80307 33178 ft 488 kts 98°
2026-05-07 12:02 42.08105 35.89399 33181 ft 489 kts 98°
2026-05-07 12:03 42.06764 35.98412 33180 ft 488 kts 99°
2026-05-07 12:03 42.05426 36.07344 33182 ft 488 kts 99°
2026-05-07 12:04 42.04061 36.16409 33188 ft 487 kts 99°
2026-05-07 12:04 42.02703 36.25377 33183 ft 488 kts 99°
2026-05-07 12:05 42.01347 36.34282 33190 ft 487 kts 99°
2026-05-07 12:05 41.99977 36.43229 33189 ft 487 kts 99°
2026-05-07 12:06 41.98598 36.52181 33197 ft 486 kts 99°
2026-05-07 12:06 41.97222 36.61071 33188 ft 486 kts 99°
2026-05-07 12:07 41.95831 36.70012 33183 ft 486 kts 99°
2026-05-07 12:07 41.94416 36.79054 33192 ft 485 kts 99°
2026-05-07 12:08 41.93012 36.87973 33179 ft 483 kts 99°
2026-05-07 12:08 41.91609 36.96845 33176 ft 484 kts 99°
2026-05-07 12:09 41.90387 37.05814 33174 ft 482 kts 91°
2026-05-07 12:09 41.90268 37.10341 33328 ft 486 kts 88°
2026-05-07 12:09 41.90212 37.14915 33803 ft 482 kts 88°
2026-05-07 12:09 41.90156 37.19331 34342 ft 476 kts 88°
2026-05-07 12:10 41.90097 37.23746 34746 ft 474 kts 88°
2026-05-07 12:10 41.90036 37.28171 34951 ft 477 kts 89°
2026-05-07 12:10 41.89970 37.32667 35122 ft 480 kts 89°
2026-05-07 12:11 41.89828 37.41713 35170 ft 481 kts 89°
2026-05-07 12:11 41.89676 37.50838 35170 ft 480 kts 89°
2026-05-07 12:12 41.89516 37.59915 35164 ft 481 kts 89°
2026-05-07 12:12 41.89348 37.68998 35169 ft 480 kts 89°
2026-05-07 12:13 41.89175 37.77982 35169 ft 480 kts 89°
2026-05-07 12:13 41.88995 37.86968 35170 ft 480 kts 89°
2026-05-07 12:14 41.88809 37.95895 35186 ft 479 kts 89°
2026-05-07 12:14 41.88615 38.04872 35192 ft 480 kts 89°
2026-05-07 12:15 41.88412 38.13903 35177 ft 482 kts 90°
2026-05-07 12:15 41.88204 38.22869 35187 ft 482 kts 90°
2026-05-07 12:16 41.87987 38.31916 35184 ft 483 kts 90°
2026-05-07 12:16 41.87764 38.40904 35180 ft 481 kts 90°
2026-05-07 12:17 41.87535 38.49865 35180 ft 481 kts 90°
2026-05-07 12:17 41.87300 38.58807 35188 ft 482 kts 90°
2026-05-07 12:18 41.87056 38.67809 35188 ft 484 kts 91°
2026-05-07 12:18 41.86800 38.76978 35186 ft 484 kts 91°
2026-05-07 12:19 41.86542 38.85980 35189 ft 484 kts 91°
2026-05-07 12:19 41.86279 38.94908 35189 ft 483 kts 91°
2026-05-07 12:20 41.86003 39.04026 35191 ft 484 kts 91°
2026-05-07 12:20 41.85720 39.13151 35192 ft 484 kts 91°
2026-05-07 12:21 41.85428 39.22292 35192 ft 485 kts 91°
2026-05-07 12:21 41.85130 39.31424 35190 ft 486 kts 91°
2026-05-07 12:22 41.84826 39.40545 35188 ft 486 kts 91°
2026-05-07 12:22 41.84516 39.49572 35189 ft 485 kts 91°
2026-05-07 12:23 41.84199 39.58646 35188 ft 485 kts 91°
2026-05-07 12:23 41.83874 39.67755 35189 ft 487 kts 92°
2026-05-07 12:24 41.83541 39.76889 35194 ft 487 kts 92°
2026-05-07 12:24 41.83199 39.86057 35198 ft 488 kts 92°
2026-05-07 12:25 41.82853 39.95153 35195 ft 488 kts 92°
2026-05-07 12:25 41.82499 40.04249 35197 ft 487 kts 92°
2026-05-07 12:26 41.82141 40.13274 35196 ft 489 kts 92°
2026-05-07 12:26 41.81770 40.22421 35198 ft 490 kts 92°
2026-05-07 12:27 41.81392 40.31554 35194 ft 491 kts 92°
2026-05-07 12:27 41.81004 40.40736 35194 ft 492 kts 92°
2026-05-07 12:28 41.80608 40.49936 35196 ft 492 kts 92°
2026-05-07 12:28 41.80208 40.59066 35196 ft 493 kts 92°
2026-05-07 12:29 41.79793 40.68306 35194 ft 493 kts 94°
2026-05-07 12:29 41.79343 40.77575 35191 ft 493 kts 94°
2026-05-07 12:30 41.78895 40.86642 35193 ft 493 kts 94°
2026-05-07 12:30 41.78431 40.95897 35194 ft 493 kts 94°
2026-05-07 12:31 41.77959 41.05163 35190 ft 495 kts 94°
2026-05-07 12:31 41.77479 41.14459 35193 ft 494 kts 94°
2026-05-07 12:32 41.76989 41.23786 35191 ft 495 kts 94°
2026-05-07 12:32 41.76494 41.33092 35191 ft 496 kts 94°
2026-05-07 12:33 41.75733 41.47089 35188 ft 496 kts 94°
2026-05-07 12:33 41.75219 41.56378 35187 ft 497 kts 94°
2026-05-07 12:34 41.74696 41.65705 35184 ft 498 kts 95°
2026-05-07 12:34 41.74166 41.74994 35179 ft 498 kts 95°
2026-05-07 12:35 41.73623 41.84397 35182 ft 499 kts 95°
2026-05-07 12:35 41.73078 41.93698 35180 ft 499 kts 95°
2026-05-07 12:36 41.72530 42.02929 35174 ft 499 kts 95°
2026-05-07 12:36 41.71974 42.12150 35166 ft 498 kts 95°
2026-05-07 12:37 41.71403 42.21484 35163 ft 499 kts 95°
2026-05-07 12:37 41.70822 42.30856 35159 ft 500 kts 95°
2026-05-07 12:38 41.70241 42.40105 35158 ft 502 kts 96°
2026-05-07 12:38 41.69642 42.49530 35152 ft 500 kts 96°
2026-05-07 12:39 41.69036 42.58918 35155 ft 502 kts 96°
2026-05-07 12:39 41.68423 42.68310 35156 ft 503 kts 96°
2026-05-07 12:40 41.67797 42.77787 35158 ft 503 kts 96°
2026-05-07 12:40 41.67160 42.87292 35161 ft 505 kts 96°
2026-05-07 12:41 41.66520 42.96702 35160 ft 505 kts 97°
2026-05-07 12:41 41.65861 43.06269 35163 ft 504 kts 97°
2026-05-07 12:42 41.65221 43.15451 35170 ft 505 kts 97°
2026-05-07 12:42 41.64550 43.24962 35171 ft 507 kts 97°
2026-05-07 12:43 41.63876 43.34409 35170 ft 508 kts 97°
2026-05-07 12:43 41.63194 43.43856 35168 ft 509 kts 97°
2026-05-07 12:44 41.62562 43.52525 35164 ft 508 kts 97°
2026-05-07 12:44 41.61869 43.61980 35143 ft 510 kts 97°
2026-05-07 12:45 41.61162 43.71510 35129 ft 509 kts 98°
2026-05-07 12:45 41.60445 43.81063 35126 ft 511 kts 98°
2026-05-07 12:46 41.59716 43.90683 35141 ft 510 kts 98°
2026-05-07 12:46 41.58980 44.00272 35139 ft 512 kts 98°
2026-05-07 12:47 41.58236 44.09868 35145 ft 514 kts 98°
2026-05-07 12:47 41.57484 44.19463 35155 ft 512 kts 98°
2026-05-07 12:48 41.56749 44.29051 35156 ft 514 kts 98°
2026-05-07 12:48 41.56062 44.38398 35153 ft 514 kts 98°
2026-05-07 12:49 41.55344 44.48032 35159 ft 516 kts 98°
2026-05-07 12:49 41.54629 44.57511 35156 ft 516 kts 98°
2026-05-07 12:50 41.53899 44.67070 35147 ft 515 kts 99°
2026-05-07 12:50 41.53186 44.76279 35136 ft 518 kts 98°
2026-05-07 12:51 41.52434 44.85918 35135 ft 516 kts 99°
2026-05-07 12:51 41.51674 44.95540 35129 ft 517 kts 99°
2026-05-07 12:52 41.50901 45.05220 35125 ft 518 kts 99°
2026-05-07 12:52 41.50133 45.14735 35133 ft 519 kts 99°
2026-05-07 12:53 41.49335 45.24514 35132 ft 519 kts 99°
2026-05-07 12:53 41.48541 45.34153 35133 ft 520 kts 99°
2026-05-07 12:54 41.47525 45.43715 35133 ft 520 kts 103°
2026-05-07 12:54 41.46320 45.52696 35131 ft 520 kts 103°
2026-05-07 12:55 41.45036 45.62325 35126 ft 521 kts 103°
2026-05-07 12:55 41.43761 45.71917 35116 ft 520 kts 104°
2026-05-07 12:56 41.42491 45.81455 35115 ft 522 kts 104°
2026-05-07 12:56 41.41203 45.91098 34959 ft 521 kts 104°
2026-05-07 12:57 41.40557 45.95913 35262 ft 525 kts 104°
2026-05-07 12:57 41.39889 46.00877 34971 ft 524 kts 104°
2026-05-07 12:57 41.39235 46.05733 35078 ft 522 kts 104°
2026-05-07 12:57 41.38595 46.10460 35099 ft 524 kts 104°
2026-05-07 12:58 41.37357 46.19580 35102 ft 523 kts 104°
2026-05-07 12:58 41.36037 46.29234 35089 ft 524 kts 104°
2026-05-07 12:59 41.34711 46.38871 35094 ft 524 kts 104°
2026-05-07 12:59 41.33376 46.48513 35108 ft 524 kts 104°
2026-05-07 13:00 41.32018 46.58264 35111 ft 524 kts 104°
2026-05-07 13:00 41.30660 46.67948 35103 ft 524 kts 104°
2026-05-07 13:01 41.29285 46.77659 35093 ft 524 kts 105°
2026-05-07 13:01 41.27850 46.87381 35100 ft 524 kts 105°
2026-05-07 13:02 41.26422 46.96987 35098 ft 527 kts 105°
2026-05-07 13:02 41.24981 47.06638 35110 ft 526 kts 105°
2026-05-07 13:03 41.23538 47.16251 35143 ft 526 kts 105°
2026-05-07 13:03 41.22136 47.25529 35140 ft 527 kts 105°
2026-05-07 13:04 41.20676 47.35152 35150 ft 526 kts 105°
2026-05-07 13:04 41.19208 47.44758 35149 ft 527 kts 105°
2026-05-07 13:05 41.17736 47.54343 35145 ft 526 kts 105°
2026-05-07 13:05 41.16232 47.64074 35150 ft 527 kts 105°
2026-05-07 13:06 41.14729 47.73743 35131 ft 525 kts 106°
2026-05-07 13:06 41.13222 47.83387 35134 ft 528 kts 105°
2026-05-07 13:07 41.12779 47.93318 35133 ft 538 kts 87°
2026-05-07 13:07 41.14484 48.03117 35149 ft 543 kts 69°
2026-05-07 13:08 41.18013 48.11606 35155 ft 544 kts 53°
2026-05-07 13:08 41.22580 48.19645 35160 ft 544 kts 52°
2026-05-07 13:09 41.27194 48.27845 35152 ft 544 kts 52°
2026-05-07 13:09 41.31749 48.36054 35140 ft 544 kts 53°
2026-05-07 13:10 41.36273 48.44278 35153 ft 545 kts 53°
2026-05-07 13:10 41.40769 48.52503 35139 ft 544 kts 53°
2026-05-07 13:11 41.45351 48.60804 35129 ft 542 kts 52°
2026-05-07 13:11 41.49950 48.69006 35108 ft 543 kts 53°
2026-05-07 13:12 41.54526 48.77347 35101 ft 545 kts 56°
2026-05-07 13:12 41.58793 48.85859 35100 ft 543 kts 56°
2026-05-07 13:13 41.62962 48.94200 35092 ft 542 kts 56°
2026-05-07 13:13 41.67234 49.02746 35097 ft 545 kts 56°
2026-05-07 13:14 41.71456 49.11202 35094 ft 543 kts 56°
2026-05-07 13:14 41.75211 49.18738 35097 ft 542 kts 56°
2026-05-07 13:15 41.79469 49.27300 35102 ft 541 kts 56°
2026-05-07 13:15 41.83783 49.35674 35097 ft 541 kts 53°
2026-05-07 13:16 41.88296 49.43867 35098 ft 539 kts 52°
2026-05-07 13:16 41.92764 49.52020 35094 ft 539 kts 53°
2026-05-07 13:17 41.97222 49.60201 35086 ft 538 kts 53°
2026-05-07 13:17 42.01677 49.68409 35082 ft 539 kts 53°
2026-05-07 13:18 42.06136 49.76655 35085 ft 539 kts 53°
2026-05-07 13:18 42.10583 49.84904 35086 ft 539 kts 53°
2026-05-07 13:19 42.15013 49.93148 35069 ft 538 kts 53°
2026-05-07 13:19 42.19390 50.01314 35072 ft 538 kts 53°
2026-05-07 13:20 42.23783 50.09535 35077 ft 538 kts 53°
2026-05-07 13:20 42.28219 50.17860 35078 ft 538 kts 53°
2026-05-07 13:21 42.32618 50.26135 35078 ft 538 kts 53°
2026-05-07 13:21 42.37046 50.34492 35079 ft 538 kts 53°
2026-05-07 13:22 42.41432 50.42790 35083 ft 537 kts 53°
2026-05-07 13:22 42.45881 50.51041 35086 ft 538 kts 51°
2026-05-07 13:23 42.50561 50.59161 35086 ft 537 kts 51°
2026-05-07 13:23 42.55179 50.67207 35081 ft 537 kts 52°
2026-05-07 13:24 42.59797 50.75294 35079 ft 537 kts 52°
2026-05-07 13:24 42.64370 50.83336 35079 ft 538 kts 51°
2026-05-07 13:25 42.68947 50.91412 35081 ft 537 kts 52°
2026-05-07 13:25 42.73503 50.99476 35073 ft 536 kts 52°
2026-05-07 13:26 42.78057 51.07560 35081 ft 538 kts 52°
2026-05-07 13:26 42.82598 51.15645 35085 ft 537 kts 52°
2026-05-07 13:27 42.87143 51.23758 35079 ft 537 kts 52°
2026-05-07 13:27 42.91693 51.31904 35086 ft 537 kts 52°
2026-05-07 13:28 42.96199 51.39994 35082 ft 537 kts 52°
2026-05-07 13:28 43.00740 51.48168 35084 ft 537 kts 52°
2026-05-07 13:29 43.05293 51.56388 35081 ft 537 kts 52°
2026-05-07 13:29 43.09814 51.64571 35074 ft 537 kts 52°
2026-05-07 13:30 43.14380 51.72860 35058 ft 536 kts 52°
2026-05-07 13:30 43.18913 51.81113 35058 ft 536 kts 52°
2026-05-07 13:31 43.23432 51.89363 35057 ft 536 kts 52°
2026-05-07 13:31 43.27979 51.97686 35056 ft 537 kts 52°
2026-05-07 13:32 43.32554 52.06084 35045 ft 536 kts 52°
2026-05-07 13:32 43.37082 52.14419 35038 ft 537 kts 52°
2026-05-07 13:33 43.41597 52.22755 35033 ft 537 kts 52°
2026-05-07 13:33 43.46104 52.31100 35037 ft 537 kts 52°
2026-05-07 13:34 43.52807 52.43555 35240 ft 536 kts 52°
2026-05-07 13:34 43.55026 52.47689 35064 ft 535 kts 52°
2026-05-07 13:35 43.57296 52.51924 35042 ft 532 kts 52°
2026-05-07 13:35 43.61740 52.60234 35035 ft 535 kts 52°
2026-05-07 13:36 43.66166 52.68534 35024 ft 535 kts 53°
2026-05-07 13:36 43.70645 52.76987 35023 ft 534 kts 53°
2026-05-07 13:37 43.75082 52.85390 35018 ft 534 kts 53°
2026-05-07 13:37 43.79539 52.93853 35011 ft 535 kts 53°
2026-05-07 13:38 43.84005 53.02358 35013 ft 533 kts 53°
2026-05-07 13:38 43.88422 53.10794 35010 ft 533 kts 53°
2026-05-07 13:39 43.92847 53.19273 35003 ft 533 kts 53°
2026-05-07 13:39 43.97204 53.27647 35002 ft 535 kts 53°
2026-05-07 13:40 44.01588 53.36096 34995 ft 534 kts 53°
2026-05-07 13:40 44.05945 53.44517 35009 ft 535 kts 53°
2026-05-07 13:41 44.10307 53.52975 35002 ft 534 kts 53°
2026-05-07 13:41 44.14711 53.61537 34997 ft 533 kts 53°
2026-05-07 13:42 44.19074 53.70045 34982 ft 533 kts 54°
2026-05-07 13:42 44.23341 53.78390 34848 ft 534 kts 54°
2026-05-07 13:42 44.25527 53.82674 34955 ft 538 kts 54°
2026-05-07 13:43 44.27754 53.87046 34971 ft 537 kts 54°
2026-05-07 13:43 44.32117 53.95628 34971 ft 536 kts 54°
2026-05-07 13:44 44.36392 54.04063 34978 ft 536 kts 54°
2026-05-07 13:44 44.40772 54.12730 34968 ft 536 kts 54°
2026-05-07 13:45 44.45135 54.21391 35136 ft 536 kts 54°
2026-05-07 13:45 44.47317 54.25730 34982 ft 534 kts 54°
2026-05-07 13:45 44.49464 54.30008 34966 ft 533 kts 54°
2026-05-07 13:46 44.53783 54.38633 34967 ft 535 kts 54°
2026-05-07 13:46 44.58096 54.47269 34968 ft 534 kts 54°
2026-05-07 13:47 44.62367 54.55848 34963 ft 534 kts 54°
2026-05-07 13:47 44.66810 54.64209 34962 ft 533 kts 45°
2026-05-07 13:48 44.72288 54.71446 34960 ft 533 kts 41°
2026-05-07 13:48 44.77817 54.78493 34960 ft 532 kts 41°
2026-05-07 13:49 44.83318 54.85538 34961 ft 532 kts 41°
2026-05-07 13:49 44.88818 54.92610 34962 ft 533 kts 41°
2026-05-07 13:50 44.94313 54.99701 34959 ft 532 kts 41°
2026-05-07 13:50 44.99731 55.06713 34957 ft 531 kts 41°
2026-05-07 13:51 45.05141 55.13833 34950 ft 531 kts 45°
2026-05-07 13:51 45.09422 55.22307 34950 ft 533 kts 64°
2026-05-07 13:52 45.12342 55.32132 34946 ft 531 kts 69°
2026-05-07 13:52 45.15065 55.41970 34944 ft 531 kts 69°
2026-05-07 13:53 45.17754 55.51763 34941 ft 531 kts 69°
2026-05-07 13:53 45.20414 55.61505 34937 ft 530 kts 70°
2026-05-07 13:54 45.23098 55.71388 34927 ft 530 kts 70°
2026-05-07 13:54 45.25795 55.81368 34924 ft 530 kts 70°
2026-05-07 13:55 45.28420 55.91119 34921 ft 530 kts 70°
2026-05-07 13:55 45.31048 56.00926 34751 ft 530 kts 70°
2026-05-07 13:55 45.32360 56.05838 35047 ft 530 kts 70°
2026-05-07 13:56 45.33669 56.10749 34932 ft 530 kts 70°
2026-05-07 13:56 45.34961 56.15604 34816 ft 528 kts 70°
2026-05-07 13:56 45.36256 56.20486 34910 ft 533 kts 70°
2026-05-07 13:57 45.38869 56.30357 34924 ft 532 kts 70°
2026-05-07 13:57 45.41459 56.40184 34933 ft 530 kts 71°
2026-05-07 13:58 45.44049 56.50055 34935 ft 530 kts 71°
2026-05-07 13:58 45.46596 56.59801 34938 ft 530 kts 71°
2026-05-07 13:59 45.49192 56.69778 34931 ft 529 kts 71°
2026-05-07 13:59 45.51773 56.79739 34932 ft 530 kts 72°
2026-05-07 14:00 45.54303 56.89542 34931 ft 530 kts 72°
2026-05-07 14:00 45.56833 56.99392 34942 ft 529 kts 72°
2026-05-07 14:01 45.59365 57.09290 34933 ft 529 kts 71°
2026-05-07 14:01 45.61873 57.19133 34941 ft 530 kts 71°
2026-05-07 14:02 45.64360 57.28938 34937 ft 529 kts 72°
2026-05-07 14:02 45.66853 57.38805 34940 ft 528 kts 72°
2026-05-07 14:03 45.69339 57.48693 34940 ft 529 kts 72°
2026-05-07 14:03 45.71807 57.58549 34937 ft 528 kts 72°
2026-05-07 14:04 45.74295 57.68529 34932 ft 529 kts 72°
2026-05-07 14:04 45.76818 57.78690 34930 ft 528 kts 73°
2026-05-07 14:05 45.79271 57.88620 34920 ft 528 kts 73°
2026-05-07 14:05 45.81699 57.98490 34928 ft 527 kts 72°
2026-05-07 14:06 45.84124 58.08391 34933 ft 527 kts 73°
2026-05-07 14:06 45.86533 58.18269 34934 ft 527 kts 72°
2026-05-07 14:07 45.88929 58.28140 34935 ft 528 kts 73°
2026-05-07 14:07 45.91326 58.38055 34937 ft 529 kts 73°
2026-05-07 14:08 45.93720 58.48001 34938 ft 528 kts 73°
2026-05-07 14:08 45.96102 58.57944 34947 ft 529 kts 73°
2026-05-07 14:09 45.98494 58.67976 34931 ft 528 kts 73°
2026-05-07 14:09 46.00868 58.77974 34931 ft 529 kts 74°
2026-05-07 14:10 46.03224 58.87943 34931 ft 528 kts 73°
2026-05-07 14:10 46.05585 58.97977 34924 ft 528 kts 73°
2026-05-07 14:11 46.07924 59.07966 34933 ft 529 kts 74°
2026-05-07 14:11 46.10262 59.17993 34939 ft 528 kts 74°
2026-05-07 14:12 46.12653 59.28295 34910 ft 527 kts 74°
2026-05-07 14:12 46.14974 59.38347 34924 ft 528 kts 74°
2026-05-07 14:13 46.17294 59.48440 34918 ft 527 kts 74°
2026-05-07 14:13 46.19587 59.58460 34905 ft 529 kts 74°
2026-05-07 14:14 46.21895 59.68595 34915 ft 528 kts 75°
2026-05-07 14:14 46.24242 59.78983 34902 ft 528 kts 75°
2026-05-07 14:15 46.26526 59.89180 34908 ft 528 kts 75°
2026-05-07 14:15 46.28757 59.99187 34903 ft 528 kts 75°
2026-05-07 14:16 46.30992 60.09259 34908 ft 528 kts 75°
2026-05-07 14:16 46.33219 60.19340 34914 ft 526 kts 75°
2026-05-07 14:17 46.35435 60.29422 34901 ft 527 kts 75°
2026-05-07 14:17 46.37627 60.39437 34904 ft 526 kts 75°
2026-05-07 14:18 46.39821 60.49515 34897 ft 526 kts 75°
2026-05-07 14:18 46.42004 60.59591 34894 ft 526 kts 75°
2026-05-07 14:19 46.44216 60.69849 34887 ft 527 kts 76°
2026-05-07 14:19 46.46347 60.79780 34886 ft 528 kts 76°
2026-05-07 14:20 46.48547 60.90078 34894 ft 527 kts 76°
2026-05-07 14:20 46.50700 61.00214 34894 ft 526 kts 76°
2026-05-07 14:21 46.52811 61.10197 34884 ft 528 kts 76°
2026-05-07 14:21 46.54944 61.20338 34883 ft 527 kts 76°
2026-05-07 14:22 46.57075 61.30517 34878 ft 527 kts 76°
2026-05-07 14:22 46.59187 61.40654 34887 ft 528 kts 76°
2026-05-07 14:23 46.61297 61.50837 34888 ft 528 kts 76°
2026-05-07 14:23 46.63387 61.60972 34898 ft 527 kts 76°
2026-05-07 14:24 46.65504 61.71291 34892 ft 527 kts 77°
2026-05-07 14:24 46.67574 61.81438 34887 ft 528 kts 77°
2026-05-07 14:25 46.69694 61.91878 34882 ft 528 kts 77°
2026-05-07 14:25 46.71754 62.02076 34886 ft 528 kts 77°
2026-05-07 14:26 46.73806 62.12285 34877 ft 529 kts 77°
2026-05-07 14:26 46.75858 62.22553 34874 ft 528 kts 77°
2026-05-07 14:27 46.77903 62.32834 34875 ft 529 kts 77°
2026-05-07 14:27 46.79937 62.43118 34874 ft 529 kts 77°
2026-05-07 14:28 46.81949 62.53344 34873 ft 529 kts 77°
2026-05-07 14:28 46.83975 62.63692 34874 ft 530 kts 77°
2026-05-07 14:29 46.86015 62.74168 34864 ft 529 kts 77°
2026-05-07 14:29 46.88026 62.84548 34863 ft 529 kts 77°
2026-05-07 14:30 46.90026 62.94926 34857 ft 529 kts 77°
2026-05-07 14:30 46.91993 63.05192 34859 ft 530 kts 77°
2026-05-07 14:31 46.93964 63.15535 34854 ft 529 kts 77°
2026-05-07 14:31 46.95926 63.25887 34857 ft 529 kts 77°
2026-05-07 14:32 46.97882 63.36261 34856 ft 530 kts 77°
2026-05-07 14:32 46.99821 63.46605 34853 ft 531 kts 77°
2026-05-07 14:33 47.01762 63.57019 34853 ft 531 kts 77°
2026-05-07 14:33 47.03694 63.67439 34847 ft 530 kts 78°
2026-05-07 14:34 47.05659 63.78096 34837 ft 529 kts 78°
2026-05-07 14:34 47.07562 63.88481 34836 ft 529 kts 78°
2026-05-07 14:35 47.09462 63.98906 34834 ft 530 kts 78°
2026-05-07 14:35 47.11382 64.09499 34831 ft 530 kts 78°
2026-05-07 14:36 47.13294 64.20117 34825 ft 530 kts 78°
2026-05-07 14:36 47.15122 64.30319 34831 ft 530 kts 78°
2026-05-07 14:37 47.16993 64.40826 34831 ft 532 kts 78°
2026-05-07 14:37 47.19770 64.56529 34833 ft 533 kts 78°
2026-05-07 14:38 47.21632 64.67091 34841 ft 533 kts 78°
2026-05-07 14:38 47.23521 64.77861 34832 ft 535 kts 78°
2026-05-07 14:39 47.25282 64.87966 34835 ft 534 kts 78°
2026-05-07 14:39 47.27119 64.98570 34847 ft 535 kts 78°
2026-05-07 14:40 47.28944 65.09177 34849 ft 534 kts 78°
2026-05-07 14:40 47.30750 65.19743 34859 ft 535 kts 78°
2026-05-07 14:41 47.32556 65.30386 34862 ft 534 kts 78°
2026-05-07 14:41 47.34341 65.40953 34872 ft 535 kts 78°
2026-05-07 14:42 47.36127 65.51602 34883 ft 535 kts 78°
2026-05-07 14:42 47.37900 65.62236 34884 ft 537 kts 78°
2026-05-07 14:43 47.39705 65.73132 34874 ft 536 kts 79°
2026-05-07 14:43 47.41421 65.83552 34885 ft 536 kts 79°
2026-05-07 14:44 47.43242 65.94296 34899 ft 539 kts 78°
2026-05-07 14:44 47.45073 66.04997 34902 ft 538 kts 78°
2026-05-07 14:45 47.46881 66.15650 34905 ft 538 kts 78°
2026-05-07 14:45 47.48690 66.26378 34917 ft 537 kts 78°
2026-05-07 14:46 47.50474 66.37038 34924 ft 538 kts 77°
2026-05-07 14:46 47.52261 66.47778 34934 ft 538 kts 77°
2026-05-07 14:47 47.54026 66.58459 34944 ft 538 kts 77°
2026-05-07 14:47 47.55804 66.69284 34940 ft 539 kts 78°
2026-05-07 14:48 47.57484 66.79782 34940 ft 539 kts 79°
2026-05-07 14:48 47.59166 66.90576 34942 ft 538 kts 78°
2026-05-07 14:49 47.60843 67.01403 34935 ft 538 kts 79°
2026-05-07 14:49 47.62497 67.12144 34931 ft 538 kts 79°
2026-05-07 14:50 47.64148 67.22928 34930 ft 539 kts 78°
2026-05-07 14:50 47.65786 67.33702 34930 ft 538 kts 78°
2026-05-07 14:51 47.67414 67.44479 34932 ft 539 kts 78°
2026-05-07 14:51 47.69039 67.55308 34934 ft 539 kts 78°
2026-05-07 14:52 47.70645 67.66082 34930 ft 538 kts 79°
2026-05-07 14:52 47.72288 67.77188 34920 ft 538 kts 79°
2026-05-07 14:53 47.73422 67.88113 34930 ft 538 kts 84°
2026-05-07 14:53 47.74441 67.99084 34938 ft 539 kts 84°
2026-05-07 14:54 47.75473 68.10080 34941 ft 539 kts 83°
2026-05-07 14:54 47.76504 68.21064 34948 ft 539 kts 83°
2026-05-07 14:55 47.77537 68.32115 34951 ft 540 kts 83°
2026-05-07 14:55 47.78411 68.41528 34955 ft 539 kts 83°
2026-05-07 14:56 47.79069 68.48660 34956 ft 538 kts 83°
2026-05-07 14:57 47.80081 68.59700 34957 ft 538 kts 83°
2026-05-07 14:57 47.81084 68.70763 34950 ft 538 kts 84°
2026-05-07 14:58 47.81946 68.81620 34948 ft 536 kts 90°
2026-05-07 14:58 47.81858 68.92793 34950 ft 536 kts 94°
2026-05-07 14:59 47.81662 69.03855 34950 ft 535 kts 94°
2026-05-07 14:59 47.81455 69.14840 34955 ft 535 kts 93°
2026-05-07 15:00 47.81237 69.25850 34954 ft 531 kts 94°
2026-05-07 15:00 47.81008 69.36838 34951 ft 532 kts 94°
2026-05-07 15:01 47.80772 69.47705 34952 ft 532 kts 94°
2026-05-07 15:01 47.80521 69.58710 34957 ft 531 kts 94°
2026-05-07 15:02 47.80263 69.69639 34953 ft 526 kts 94°
2026-05-07 15:02 47.79993 69.80574 34950 ft 527 kts 95°
2026-05-07 15:03 47.79709 69.91672 34977 ft 523 kts 95°
2026-05-07 15:03 47.79421 70.02480 34987 ft 525 kts 95°
2026-05-07 15:04 47.79125 70.13266 34993 ft 528 kts 95°
2026-05-07 15:04 47.78814 70.24155 34997 ft 530 kts 94°
2026-05-07 15:05 47.78495 70.35030 35005 ft 529 kts 94°
2026-05-07 15:05 47.78163 70.45954 35010 ft 529 kts 94°
2026-05-07 15:06 47.77823 70.56818 35015 ft 531 kts 94°
2026-05-07 15:06 47.77467 70.67832 35011 ft 532 kts 94°
2026-05-07 15:07 47.77092 70.79030 35010 ft 534 kts 94°
2026-05-07 15:07 47.76714 70.90033 35004 ft 532 kts 94°
2026-05-07 15:08 47.76326 71.01009 34997 ft 533 kts 94°
2026-05-07 15:08 47.75929 71.11948 35003 ft 532 kts 94°
2026-05-07 15:09 47.75521 71.22900 35003 ft 531 kts 94°
2026-05-07 15:09 47.75106 71.33755 35010 ft 529 kts 93°
2026-05-07 15:10 47.74678 71.44681 35017 ft 529 kts 94°
2026-05-07 15:10 47.74241 71.55570 35015 ft 528 kts 93°
2026-05-07 15:11 47.73796 71.66397 35023 ft 528 kts 94°
2026-05-07 15:11 47.73330 71.77481 35030 ft 526 kts 94°
2026-05-07 15:12 47.72827 71.88188 35035 ft 524 kts 95°
2026-05-07 15:12 47.72204 71.98899 35043 ft 523 kts 95°
2026-05-07 15:13 47.71571 72.09663 35046 ft 523 kts 95°
2026-05-07 15:13 47.70937 72.20338 35056 ft 523 kts 95°
2026-05-07 15:14 47.70293 72.31046 35067 ft 523 kts 95°
2026-05-07 15:14 47.69637 72.41802 35082 ft 522 kts 95°
2026-05-07 15:15 47.68978 72.52448 35087 ft 522 kts 95°
2026-05-07 15:15 47.68303 72.63194 35086 ft 522 kts 95°
2026-05-07 15:16 47.67608 72.74099 35076 ft 520 kts 96°
2026-05-07 15:16 47.66919 72.84752 35078 ft 520 kts 96°
2026-05-07 15:17 47.66224 72.95349 35074 ft 519 kts 96°
2026-05-07 15:17 47.65518 73.05943 35078 ft 519 kts 96°
2026-05-07 15:18 47.64801 73.16572 35084 ft 520 kts 96°
2026-05-07 15:18 47.64077 73.27159 35082 ft 518 kts 96°
2026-05-07 15:19 47.63338 73.37795 35078 ft 519 kts 96°
2026-05-07 15:19 47.62596 73.48357 35075 ft 519 kts 96°
2026-05-07 15:20 47.61839 73.58986 35069 ft 519 kts 96°
2026-05-07 15:20 47.61071 73.69617 35066 ft 518 kts 97°
2026-05-07 15:21 47.60308 73.80055 35059 ft 518 kts 97°
2026-05-07 15:21 47.59520 73.90695 35058 ft 518 kts 97°
2026-05-07 15:22 47.58723 74.01310 35056 ft 518 kts 97°
2026-05-07 15:22 47.57924 74.11833 35049 ft 517 kts 97°
2026-05-07 15:23 47.57111 74.22408 35050 ft 518 kts 97°
2026-05-07 15:23 47.56288 74.32975 35055 ft 517 kts 97°
2026-05-07 15:24 47.55460 74.43491 35057 ft 517 kts 97°
2026-05-07 15:24 47.54618 74.54051 35064 ft 516 kts 97°
2026-05-07 15:25 47.53770 74.64555 35077 ft 515 kts 97°
2026-05-07 15:25 47.52901 74.75214 35068 ft 515 kts 98°
2026-05-07 15:26 47.52074 74.85223 35074 ft 516 kts 98°
2026-05-07 15:26 47.51188 74.95848 35064 ft 514 kts 98°
2026-05-07 15:27 47.50306 75.06293 35058 ft 515 kts 98°
2026-05-07 15:27 47.49409 75.16801 35054 ft 514 kts 98°
2026-05-07 15:28 47.48512 75.27201 35052 ft 514 kts 98°
2026-05-07 15:28 47.47598 75.37672 35048 ft 514 kts 98°
2026-05-07 15:29 47.46677 75.48129 35041 ft 513 kts 98°
2026-05-07 15:29 47.45750 75.58527 35046 ft 513 kts 98°
2026-05-07 15:30 47.44804 75.69036 35041 ft 512 kts 98°
2026-05-07 15:30 47.43857 75.79442 35038 ft 512 kts 98°
2026-05-07 15:31 47.42891 75.89955 35039 ft 511 kts 98°
2026-05-07 15:31 47.41925 76.00347 35043 ft 511 kts 98°
2026-05-07 15:32 47.40957 76.10668 35040 ft 512 kts 98°
2026-05-07 15:32 47.39977 76.21024 35038 ft 510 kts 98°
2026-05-07 15:33 47.38979 76.31445 35037 ft 511 kts 98°
2026-05-07 15:33 47.37985 76.41734 35041 ft 510 kts 98°
2026-05-07 15:34 47.36973 76.52112 35048 ft 511 kts 98°
2026-05-07 15:34 47.35961 76.62382 35049 ft 510 kts 98°
2026-05-07 15:35 47.34914 76.72913 35043 ft 511 kts 99°
2026-05-07 15:35 47.33868 76.83331 35040 ft 512 kts 99°
2026-05-07 15:36 47.32821 76.93674 35039 ft 511 kts 99°
2026-05-07 15:36 47.31760 77.04042 35045 ft 511 kts 99°
2026-05-07 15:37 47.31014 77.14363 35047 ft 511 kts 94°
2026-05-07 15:37 47.30524 77.24749 35045 ft 510 kts 94°
2026-05-07 15:38 47.30000 77.35159 35050 ft 511 kts 94°
2026-05-07 15:38 47.29453 77.45579 35053 ft 510 kts 94°
2026-05-07 15:39 47.28891 77.55926 35058 ft 510 kts 94°
2026-05-07 15:39 47.28310 77.66386 35057 ft 511 kts 95°
2026-05-07 15:40 47.27710 77.76964 35050 ft 510 kts 95°
2026-05-07 15:40 47.27110 77.87334 35052 ft 510 kts 95°
2026-05-07 15:41 47.26499 77.97737 35061 ft 510 kts 95°
2026-05-07 15:41 47.25880 78.08086 35071 ft 511 kts 95°
2026-05-07 15:42 47.25250 78.18484 35077 ft 512 kts 95°
2026-05-07 15:42 47.24609 78.28893 35079 ft 511 kts 95°
2026-05-07 15:43 47.23960 78.39259 35071 ft 511 kts 95°
2026-05-07 15:43 47.23299 78.49683 35064 ft 511 kts 95°
2026-05-07 15:44 47.22631 78.60052 35060 ft 511 kts 95°
2026-05-07 15:44 47.21947 78.70533 35049 ft 510 kts 95°
2026-05-07 15:45 47.21270 78.80760 35044 ft 510 kts 95°
2026-05-07 15:45 47.20570 78.91188 35039 ft 510 kts 95°
2026-05-07 15:46 47.19512 79.06677 35027 ft 509 kts 95°
2026-05-07 15:47 47.18792 79.17042 35029 ft 509 kts 95°
2026-05-07 15:47 47.18042 79.27382 35028 ft 510 kts 95°
2026-05-07 15:48 47.17285 79.37677 35030 ft 510 kts 95°
2026-05-07 15:48 47.16514 79.48049 35033 ft 510 kts 95°
2026-05-07 15:49 47.15741 79.58328 35033 ft 511 kts 95°
2026-05-07 15:49 47.14951 79.68699 35034 ft 510 kts 96°
2026-05-07 15:50 47.14166 79.78886 35033 ft 510 kts 96°
2026-05-07 15:50 47.13369 79.89133 35031 ft 509 kts 95°
2026-05-07 15:51 47.12577 79.99506 35031 ft 508 kts 95°
2026-05-07 15:51 47.11783 80.09791 35032 ft 509 kts 95°
2026-05-07 15:52 47.10978 80.20081 35034 ft 509 kts 95°
2026-05-07 15:52 47.10166 80.30340 35038 ft 509 kts 95°
2026-05-07 15:53 47.09340 80.40645 35039 ft 511 kts 95°
2026-05-07 15:53 47.08502 80.50989 35043 ft 511 kts 95°
2026-05-07 15:54 47.07659 80.61261 35044 ft 511 kts 95°
2026-05-07 15:54 47.06792 80.71719 35045 ft 510 kts 96°
2026-05-07 15:55 47.05963 80.81612 35051 ft 511 kts 96°
2026-05-07 15:55 47.05085 80.91980 35056 ft 510 kts 96°
2026-05-07 15:56 47.04203 81.02264 35058 ft 510 kts 96°
2026-05-07 15:56 47.03307 81.12631 35059 ft 510 kts 96°
2026-05-07 15:57 47.02412 81.22862 35062 ft 511 kts 96°
2026-05-07 15:57 47.01501 81.33154 35057 ft 510 kts 96°
2026-05-07 15:58 47.00585 81.43420 35047 ft 510 kts 96°
2026-05-07 15:58 46.99654 81.53731 35042 ft 510 kts 96°
2026-05-07 15:59 46.98718 81.64005 35048 ft 511 kts 96°
2026-05-07 15:59 46.97754 81.74472 35046 ft 512 kts 97°
2026-05-07 16:00 46.96816 81.84558 35055 ft 512 kts 97°
2026-05-07 16:00 46.95848 81.94853 35077 ft 514 kts 97°
2026-05-07 16:00 46.95349 82.00081 35298 ft 519 kts 97°
2026-05-07 16:01 46.94848 82.05297 35880 ft 514 kts 97°
2026-05-07 16:01 46.94359 82.10368 36510 ft 510 kts 97°
2026-05-07 16:01 46.93861 82.15504 37079 ft 508 kts 96°
2026-05-07 16:02 46.92868 82.25693 37116 ft 510 kts 96°
2026-05-07 16:02 46.91859 82.35939 37133 ft 509 kts 96°
2026-05-07 16:03 46.90839 82.46201 37145 ft 510 kts 96°
2026-05-07 16:03 46.89813 82.56419 37156 ft 509 kts 96°
2026-05-07 16:04 46.88747 82.66956 37150 ft 510 kts 97°
2026-05-07 16:04 46.87705 82.77141 37145 ft 507 kts 97°
2026-05-07 16:05 46.86327 82.87120 37146 ft 510 kts 108°
2026-05-07 16:05 46.83179 82.96457 36462 ft 501 kts 121°
2026-05-07 16:05 46.81335 83.00820 35629 ft 505 kts 121°
2026-05-07 16:06 46.79431 83.05282 35305 ft 506 kts 122°
2026-05-07 16:06 46.75658 83.14082 35252 ft 516 kts 122°
2026-05-07 16:07 46.71871 83.22875 35268 ft 514 kts 121°
2026-05-07 16:07 46.68067 83.31672 35262 ft 514 kts 121°
2026-05-07 16:08 46.64177 83.40417 35318 ft 519 kts 125°
2026-05-07 16:08 46.62058 83.44617 35695 ft 520 kts 126°
2026-05-07 16:08 46.59922 83.48818 36375 ft 513 kts 126°
2026-05-07 16:08 46.57818 83.52964 37116 ft 509 kts 126°
2026-05-07 16:09 46.55734 83.57072 37260 ft 512 kts 126°
2026-05-07 16:09 46.51505 83.65419 37268 ft 511 kts 126°
2026-05-07 16:10 46.47225 83.73860 37264 ft 513 kts 126°
2026-05-07 16:10 46.43252 83.81685 37290 ft 512 kts 126°
2026-05-07 16:11 46.39005 83.90031 37316 ft 510 kts 126°
2026-05-07 16:11 46.34815 83.98244 37335 ft 511 kts 126°
2026-05-07 16:12 46.30594 84.06493 37333 ft 511 kts 126°
2026-05-07 16:12 46.26384 84.14700 37322 ft 510 kts 126°
2026-05-07 16:13 46.22167 84.22854 37318 ft 510 kts 126°
2026-05-07 16:13 46.17932 84.31007 37312 ft 509 kts 126°
2026-05-07 16:14 46.13679 84.39173 37303 ft 509 kts 126°
2026-05-07 16:14 46.09415 84.47337 37305 ft 508 kts 126°
2026-05-07 16:15 46.05173 84.55438 37303 ft 508 kts 126°
2026-05-07 16:15 46.00911 84.63554 37277 ft 509 kts 126°
2026-05-07 16:16 45.96580 84.71775 37258 ft 508 kts 127°
2026-05-07 16:16 45.92410 84.79669 37239 ft 509 kts 126°
2026-05-07 16:17 45.88114 84.87779 37219 ft 507 kts 126°
2026-05-07 16:17 45.83764 84.95967 37192 ft 507 kts 126°
2026-05-07 16:18 45.79859 85.03297 37175 ft 507 kts 126°
2026-05-07 16:18 45.75791 85.10913 37153 ft 508 kts 126°
2026-05-07 16:19 45.71480 85.18961 37128 ft 507 kts 126°
2026-05-07 16:19 45.67225 85.26909 37103 ft 506 kts 126°
2026-05-07 16:20 45.62946 85.34927 37093 ft 507 kts 126°
2026-05-07 16:20 45.58694 85.42869 37092 ft 508 kts 126°
2026-05-07 16:21 45.54409 85.50847 37096 ft 506 kts 126°
2026-05-07 16:21 45.50109 85.58831 37096 ft 508 kts 126°
2026-05-07 16:22 45.45814 85.66782 37091 ft 507 kts 126°
2026-05-07 16:22 45.41458 85.74824 37090 ft 506 kts 126°
2026-05-07 16:23 45.37390 85.82312 37087 ft 503 kts 126°
2026-05-07 16:23 45.33176 85.90049 37090 ft 502 kts 126°
2026-05-07 16:24 45.28917 85.97847 37094 ft 502 kts 126°
2026-05-07 16:24 45.24654 86.05632 37094 ft 502 kts 126°
2026-05-07 16:25 45.20356 86.13457 37097 ft 501 kts 126°
2026-05-07 16:25 45.16092 86.21201 37100 ft 501 kts 126°
2026-05-07 16:26 45.11791 86.28991 37095 ft 501 kts 126°
2026-05-07 16:26 45.07521 86.36702 37098 ft 501 kts 126°
2026-05-07 16:27 45.03241 86.44411 37104 ft 500 kts 126°
2026-05-07 16:27 44.98949 86.52121 37102 ft 500 kts 126°
2026-05-07 16:28 44.94634 86.59851 37106 ft 500 kts 126°
2026-05-07 16:28 44.90315 86.67568 37106 ft 501 kts 127°
2026-05-07 16:29 44.86151 86.74987 37100 ft 499 kts 126°
2026-05-07 16:29 44.81783 86.82724 37116 ft 499 kts 127°
2026-05-07 16:30 44.77517 86.90125 37122 ft 498 kts 127°
2026-05-07 16:30 44.73290 86.97439 37122 ft 500 kts 127°
2026-05-07 16:31 44.69004 87.04858 37126 ft 500 kts 127°
2026-05-07 16:31 44.64645 87.12403 37128 ft 499 kts 127°
2026-05-07 16:32 44.60257 87.19978 37120 ft 499 kts 127°
2026-05-07 16:32 44.55895 87.27487 37122 ft 498 kts 127°
2026-05-07 16:33 44.51657 87.35088 37133 ft 497 kts 124°
2026-05-07 16:33 44.47504 87.42743 37140 ft 496 kts 124°
2026-05-07 16:34 44.43310 87.50436 37136 ft 497 kts 124°
2026-05-07 16:34 44.39120 87.58089 37148 ft 496 kts 124°
2026-05-07 16:35 44.34930 87.65713 37149 ft 495 kts 126°
2026-05-07 16:35 44.30681 87.73523 37157 ft 495 kts 124°
2026-05-07 16:36 44.26664 87.81017 37164 ft 495 kts 124°
2026-05-07 16:36 44.22598 87.88731 37170 ft 492 kts 119°
2026-05-07 16:37 44.19875 87.97324 37188 ft 485 kts 102°
2026-05-07 16:37 44.19115 88.06519 37210 ft 477 kts 84°
2026-05-07 16:38 44.20074 88.15636 37220 ft 475 kts 76°
2026-05-07 16:38 44.21344 88.24631 37218 ft 475 kts 76°
2026-05-07 16:39 44.22635 88.33603 37206 ft 475 kts 75°
2026-05-07 16:39 44.23942 88.42618 37192 ft 475 kts 75°
2026-05-07 16:40 44.25242 88.51573 37181 ft 474 kts 75°
2026-05-07 16:40 44.26546 88.60585 37180 ft 475 kts 75°
2026-05-07 16:41 44.27862 88.69704 37176 ft 476 kts 76°
2026-05-07 16:41 44.29145 88.78651 37176 ft 477 kts 75°
2026-05-07 16:42 44.30453 88.87810 37176 ft 474 kts 76°
2026-05-07 16:42 44.31725 88.96777 37170 ft 474 kts 76°
2026-05-07 16:43 44.33003 89.05831 37168 ft 475 kts 75°
2026-05-07 16:43 44.34269 89.14854 37172 ft 476 kts 75°
2026-05-07 16:44 44.35531 89.23904 37168 ft 478 kts 75°
2026-05-07 16:44 44.36783 89.32939 37171 ft 477 kts 75°
2026-05-07 16:45 44.38042 89.42079 37176 ft 477 kts 76°
2026-05-07 16:45 44.39241 89.50839 37178 ft 478 kts 75°
2026-05-07 16:46 44.40478 89.59930 37184 ft 478 kts 75°
2026-05-07 16:46 44.41016 89.69293 37180 ft 486 kts 91°
2026-05-07 16:47 44.39670 89.78484 37468 ft 493 kts 103°
2026-05-07 16:47 44.38693 89.83156 37207 ft 491 kts 104°
2026-05-07 16:47 44.37737 89.87650 36854 ft 488 kts 103°
2026-05-07 16:47 44.36764 89.92194 37155 ft 489 kts 104°
2026-05-07 16:48 44.35779 89.96767 37192 ft 493 kts 104°
2026-05-07 16:48 44.34798 90.01296 37511 ft 492 kts 104°
2026-05-07 16:48 44.33799 90.05891 37277 ft 492 kts 104°
2026-05-07 16:49 44.31816 90.14960 37207 ft 490 kts 104°
2026-05-07 16:49 44.29822 90.24024 37212 ft 491 kts 104°
2026-05-07 16:50 44.27812 90.33116 37222 ft 490 kts 104°
2026-05-07 16:50 44.25804 90.42159 37231 ft 491 kts 104°
2026-05-07 16:50 44.24790 90.46708 37063 ft 492 kts 104°
2026-05-07 16:51 44.23772 90.51265 37248 ft 494 kts 104°
2026-05-07 16:51 44.21738 90.60345 37248 ft 494 kts 104°
2026-05-07 16:51 44.20711 90.64912 37563 ft 492 kts 104°
2026-05-07 16:52 44.19667 90.69544 37037 ft 494 kts 105°
2026-05-07 16:52 44.18625 90.74157 37237 ft 491 kts 105°
2026-05-07 16:52 44.17898 90.77372 37256 ft 494 kts 105°
2026-05-07 16:53 44.15807 90.86586 37218 ft 491 kts 105°
2026-05-07 16:53 44.13737 90.95677 37280 ft 495 kts 105°
2026-05-07 16:54 44.11666 91.04726 37286 ft 493 kts 105°
2026-05-07 16:54 44.09580 91.13815 37295 ft 493 kts 105°
2026-05-07 16:55 44.07486 91.22907 37309 ft 495 kts 105°
2026-05-07 16:55 44.05392 91.31951 37324 ft 493 kts 105°
2026-05-07 16:56 44.03292 91.40989 37343 ft 496 kts 105°
2026-05-07 16:56 44.00095 91.54572 37370 ft 495 kts 105°
2026-05-07 16:57 43.97940 91.63657 37386 ft 496 kts 105°
2026-05-07 16:57 43.95735 91.72915 37393 ft 495 kts 106°
2026-05-07 16:58 43.93650 91.81642 37400 ft 497 kts 106°
2026-05-07 16:58 43.91467 91.90738 37408 ft 497 kts 106°
2026-05-07 16:59 43.89279 91.99819 37400 ft 497 kts 105°
2026-05-07 16:59 43.87067 92.08967 37410 ft 496 kts 106°
2026-05-07 17:00 43.84871 92.18007 37412 ft 498 kts 106°
2026-05-07 17:00 43.82700 92.26914 37404 ft 496 kts 106°
2026-05-07 17:01 43.80484 92.35965 37395 ft 498 kts 106°
2026-05-07 17:01 43.78262 92.45009 37390 ft 496 kts 106°
2026-05-07 17:02 43.76039 92.54020 37386 ft 497 kts 106°
2026-05-07 17:02 43.73796 92.63075 37371 ft 496 kts 106°
2026-05-07 17:03 43.71524 92.72214 37372 ft 497 kts 107°
2026-05-07 17:03 43.69305 92.81100 37374 ft 496 kts 107°
2026-05-07 17:04 43.67045 92.90121 37382 ft 497 kts 107°
2026-05-07 17:04 43.64788 92.99092 37391 ft 498 kts 107°
2026-05-07 17:05 43.62605 93.08184 37399 ft 499 kts 106°
2026-05-07 17:05 43.60452 93.17216 37407 ft 496 kts 106°
2026-05-07 17:06 43.58287 93.26247 37407 ft 498 kts 106°
2026-05-07 17:06 43.56121 93.35235 37405 ft 498 kts 106°
2026-05-07 17:07 43.53932 93.44276 37388 ft 497 kts 106°
2026-05-07 17:07 43.51749 93.53253 37378 ft 498 kts 106°
2026-05-07 17:08 43.49542 93.62293 37375 ft 498 kts 106°
2026-05-07 17:08 43.47301 93.71434 37367 ft 498 kts 107°
2026-05-07 17:09 43.45143 93.80203 37396 ft 497 kts 107°
2026-05-07 17:09 43.42903 93.89269 37408 ft 499 kts 107°
2026-05-07 17:10 43.40669 93.98277 37418 ft 497 kts 107°
2026-05-07 17:10 43.38441 94.07224 37411 ft 499 kts 107°
2026-05-07 17:11 43.36188 94.16238 37425 ft 498 kts 107°
2026-05-07 17:11 43.33934 94.25221 37429 ft 498 kts 107°
2026-05-07 17:12 43.31675 94.34186 37429 ft 497 kts 107°
2026-05-07 17:12 43.29407 94.43155 37412 ft 498 kts 108°
2026-05-07 17:13 43.27138 94.52092 37390 ft 499 kts 108°
2026-05-07 17:13 43.24851 94.61068 37403 ft 498 kts 108°
2026-05-07 17:14 43.22527 94.70152 37403 ft 499 kts 108°
2026-05-07 17:14 43.20211 94.79169 37393 ft 499 kts 108°
2026-05-07 17:15 43.17934 94.88004 37400 ft 499 kts 108°
2026-05-07 17:15 43.15622 94.96944 37384 ft 497 kts 109°
2026-05-07 17:16 43.12655 95.05495 37359 ft 500 kts 124°
2026-05-07 17:16 43.07998 95.12418 37365 ft 498 kts 142°
2026-05-07 17:17 43.02374 95.17961 37383 ft 499 kts 146°
2026-05-07 17:17 42.96708 95.23331 37388 ft 498 kts 146°
2026-05-07 17:18 42.91008 95.28676 37386 ft 497 kts 146°
2026-05-07 17:18 42.85236 95.34052 37355 ft 497 kts 146°
2026-05-07 17:19 42.79593 95.39283 37360 ft 496 kts 146°
2026-05-07 17:19 42.73860 95.44579 37345 ft 495 kts 146°
2026-05-07 17:20 42.68163 95.49826 37335 ft 496 kts 147°
2026-05-07 17:20 42.62453 95.55072 37335 ft 495 kts 147°
2026-05-07 17:21 42.56756 95.60292 37327 ft 495 kts 147°
2026-05-07 17:21 42.51008 95.65548 37319 ft 495 kts 147°
2026-05-07 17:22 42.45217 95.70983 37334 ft 494 kts 141°
2026-05-07 17:22 42.40745 95.77627 37359 ft 498 kts 124°
2026-05-07 17:23 42.37837 95.86108 37368 ft 498 kts 105°
2026-05-07 17:23 42.36431 95.95221 37386 ft 498 kts 101°
2026-05-07 17:24 42.35162 96.04424 37380 ft 499 kts 100°
2026-05-07 17:24 42.33896 96.13657 37362 ft 501 kts 100°
2026-05-07 17:25 42.32637 96.22838 37367 ft 499 kts 100°
2026-05-07 17:25 42.31369 96.32059 37379 ft 500 kts 100°
2026-05-07 17:26 42.30100 96.41245 37390 ft 501 kts 100°
2026-05-07 17:26 42.28822 96.50449 37377 ft 500 kts 100°
2026-05-07 17:27 42.27530 96.59704 37392 ft 501 kts 100°
2026-05-07 17:27 42.26223 96.69011 37379 ft 503 kts 101°
2026-05-07 17:28 42.24895 96.78415 37387 ft 503 kts 101°
2026-05-07 17:28 42.23582 96.87654 37380 ft 503 kts 101°
2026-05-07 17:29 42.22258 96.96914 37394 ft 504 kts 101°
2026-05-07 17:29 42.20928 97.06163 37394 ft 505 kts 101°
2026-05-07 17:30 42.19581 97.15472 37371 ft 505 kts 101°
2026-05-07 17:30 42.18240 97.24677 37370 ft 505 kts 101°
2026-05-07 17:31 42.16879 97.33976 37361 ft 505 kts 101°
2026-05-07 17:31 42.15512 97.43252 37355 ft 506 kts 101°
2026-05-07 17:32 42.14135 97.52548 37342 ft 507 kts 101°
2026-05-07 17:32 42.12989 97.60244 37327 ft 507 kts 101°
2026-05-07 17:33 42.11346 97.71207 37330 ft 507 kts 102°
2026-05-07 17:33 42.09954 97.80437 37325 ft 508 kts 102°
2026-05-07 17:34 42.08544 97.89734 37330 ft 508 kts 102°
2026-05-07 17:34 42.07123 97.99049 37322 ft 508 kts 102°
2026-05-07 17:35 42.05694 98.08366 37322 ft 509 kts 102°
2026-05-07 17:35 42.04261 98.17648 37326 ft 511 kts 102°
2026-05-07 17:36 42.02810 98.27000 37325 ft 510 kts 102°
2026-05-07 17:36 42.01366 98.36253 37316 ft 510 kts 102°
2026-05-07 17:37 41.99904 98.45570 37323 ft 512 kts 102°
2026-05-07 17:37 41.98434 98.54888 37313 ft 511 kts 102°
2026-05-07 17:38 41.96955 98.64204 37308 ft 511 kts 102°
2026-05-07 17:38 41.95439 98.73704 37288 ft 513 kts 103°
2026-05-07 17:39 41.93932 98.83102 37284 ft 511 kts 103°
2026-05-07 17:39 41.92420 98.92465 37277 ft 512 kts 103°
2026-05-07 17:40 41.90910 99.01775 37277 ft 513 kts 103°
2026-05-07 17:40 41.89384 99.11128 37267 ft 514 kts 103°
2026-05-07 17:41 41.87843 99.20522 37255 ft 513 kts 103°
2026-05-07 17:41 41.86302 99.29868 37236 ft 514 kts 103°
2026-05-07 17:42 41.84765 99.39135 37232 ft 517 kts 103°
2026-05-07 17:42 41.83212 99.48450 37225 ft 518 kts 103°
2026-05-07 17:43 41.81631 99.57886 37223 ft 519 kts 103°
2026-05-07 17:43 41.80046 99.67293 37202 ft 520 kts 104°
2026-05-07 17:44 41.78446 99.76739 37187 ft 518 kts 104°
2026-05-07 17:44 41.76843 99.86150 37189 ft 520 kts 104°
2026-05-07 17:45 41.75223 99.95612 37191 ft 522 kts 104°
2026-05-07 17:45 41.73596 100.05067 37192 ft 522 kts 104°
2026-05-07 17:46 41.71954 100.14555 37185 ft 524 kts 104°
2026-05-07 17:46 41.70309 100.24013 37180 ft 522 kts 103°
2026-05-07 17:47 41.68668 100.33401 37180 ft 523 kts 103°
2026-05-07 17:47 41.66996 100.42911 37180 ft 523 kts 103°
2026-05-07 17:48 41.65331 100.52339 37181 ft 525 kts 103°
2026-05-07 17:48 41.63641 100.61857 37183 ft 525 kts 103°
2026-05-07 17:49 41.61938 100.71399 37170 ft 526 kts 104°
2026-05-07 17:49 41.60235 100.80888 37180 ft 527 kts 104°
2026-05-07 17:50 41.58536 100.90312 37179 ft 526 kts 104°
2026-05-07 17:50 41.56816 100.99801 37180 ft 526 kts 104°
2026-05-07 17:51 41.55091 101.09272 37179 ft 526 kts 104°
2026-05-07 17:51 41.53350 101.18780 37178 ft 527 kts 104°
2026-05-07 17:52 41.51615 101.28210 37178 ft 526 kts 104°
2026-05-07 17:52 41.49867 101.37669 37185 ft 528 kts 104°
2026-05-07 17:53 41.48099 101.47180 37190 ft 528 kts 104°
2026-05-07 17:53 41.46332 101.56640 37187 ft 529 kts 104°
2026-05-07 17:54 41.44549 101.66138 37189 ft 529 kts 104°
2026-05-07 17:54 41.42720 101.75839 37188 ft 528 kts 104°
2026-05-07 17:55 41.40978 101.85030 37181 ft 528 kts 104°
2026-05-07 17:55 41.39162 101.94559 37198 ft 530 kts 104°
2026-05-07 17:56 41.37346 102.04050 37199 ft 530 kts 104°
2026-05-07 17:56 41.35530 102.13498 37213 ft 531 kts 104°
2026-05-07 17:57 41.33995 102.21441 37208 ft 531 kts 104°
2026-05-07 17:57 41.31856 102.32461 37208 ft 531 kts 104°
2026-05-07 17:58 41.30001 102.41971 37212 ft 530 kts 104°
2026-05-07 17:58 41.28151 102.51408 37236 ft 534 kts 104°
2026-05-07 17:59 41.26271 102.60955 37232 ft 534 kts 104°
2026-05-07 17:59 41.24362 102.70600 37249 ft 535 kts 105°
2026-05-07 18:00 41.22507 102.79928 37245 ft 534 kts 105°
2026-05-07 18:00 41.20589 102.89529 37244 ft 537 kts 105°
2026-05-07 18:01 41.18674 102.99069 37238 ft 534 kts 105°
2026-05-07 18:01 41.16760 103.08557 37251 ft 536 kts 105°
2026-05-07 18:02 41.13850 103.22907 37269 ft 537 kts 105°
2026-05-07 18:03 41.11898 103.32474 37275 ft 537 kts 105°
2026-05-07 18:03 41.09949 103.41983 37270 ft 540 kts 105°
2026-05-07 18:04 41.07976 103.51562 37285 ft 540 kts 105°
2026-05-07 18:04 41.06000 103.61114 37282 ft 539 kts 105°
2026-05-07 18:05 41.03994 103.70766 37278 ft 538 kts 106°
2026-05-07 18:05 41.01994 103.80346 37278 ft 538 kts 106°
2026-05-07 18:06 40.99975 103.89971 37284 ft 537 kts 106°
2026-05-07 18:06 40.97981 103.99436 37277 ft 538 kts 106°
2026-05-07 18:07 40.95964 104.08965 37274 ft 540 kts 106°
2026-05-07 18:07 40.93941 104.18481 37275 ft 536 kts 106°
2026-05-07 18:08 40.91930 104.27898 37265 ft 536 kts 106°
2026-05-07 18:08 40.89896 104.37383 37287 ft 536 kts 105°
2026-05-07 18:09 40.87822 104.47006 37280 ft 536 kts 105°
2026-05-07 18:09 40.85771 104.56484 37287 ft 537 kts 105°
2026-05-07 18:10 40.83798 104.65564 37293 ft 535 kts 107°
2026-05-07 18:10 40.81674 104.75292 37261 ft 536 kts 107°
2026-05-07 18:11 40.79663 104.84467 37502 ft 536 kts 107°
2026-05-07 18:11 40.78975 104.87595 37329 ft 535 kts 107°
2026-05-07 18:11 40.77600 104.93838 37314 ft 532 kts 106°
2026-05-07 18:12 40.75537 105.03164 37275 ft 531 kts 106°
2026-05-07 18:12 40.73452 105.12552 37151 ft 534 kts 106°
2026-05-07 18:12 40.72414 105.17213 37280 ft 536 kts 107°
2026-05-07 18:13 40.71362 105.21924 37279 ft 537 kts 107°
2026-05-07 18:13 40.69259 105.31315 37278 ft 537 kts 107°
2026-05-07 18:14 40.67141 105.40734 37282 ft 535 kts 107°
2026-05-07 18:14 40.65020 105.50120 37305 ft 537 kts 107°
2026-05-07 18:15 40.62890 105.59512 37310 ft 540 kts 107°
2026-05-07 18:15 40.60722 105.69027 37316 ft 538 kts 108°
2026-05-07 18:16 40.58635 105.78153 37306 ft 539 kts 108°
2026-05-07 18:16 40.56453 105.87655 37291 ft 538 kts 107°
2026-05-07 18:17 40.54263 105.97147 37296 ft 542 kts 108°
2026-05-07 18:17 40.52081 106.06564 37290 ft 544 kts 108°
2026-05-07 18:18 40.49878 106.16039 37274 ft 545 kts 108°
2026-05-07 18:18 40.47667 106.25504 37267 ft 545 kts 108°
2026-05-07 18:19 40.45451 106.34952 37255 ft 545 kts 108°
2026-05-07 18:19 40.43211 106.44463 37241 ft 544 kts 108°
2026-05-07 18:20 40.40973 106.53926 37242 ft 547 kts 108°
2026-05-07 18:20 40.38717 106.63431 37255 ft 548 kts 108°
2026-05-07 18:21 40.36406 106.73122 37240 ft 550 kts 109°
2026-05-07 18:21 40.34170 106.82459 37246 ft 550 kts 108°
2026-05-07 18:22 40.31887 106.91963 37259 ft 552 kts 108°
2026-05-07 18:22 40.30616 107.01794 37247 ft 552 kts 90°
2026-05-07 18:23 40.31128 107.11767 37259 ft 550 kts 82°
2026-05-07 18:23 40.31842 107.21664 37253 ft 547 kts 83°
2026-05-07 18:24 40.32466 107.31613 37277 ft 551 kts 83°
2026-05-07 18:24 40.33029 107.41575 37278 ft 551 kts 83°
2026-05-07 18:25 40.33551 107.51509 37277 ft 549 kts 83°
2026-05-07 18:25 40.34050 107.61498 37276 ft 550 kts 83°
2026-05-07 18:26 40.34537 107.71627 37254 ft 551 kts 84°
2026-05-07 18:26 40.34983 107.81193 37268 ft 550 kts 84°
2026-05-07 18:27 40.35429 107.91029 37252 ft 548 kts 84°
2026-05-07 18:27 40.35872 108.00997 37264 ft 550 kts 84°
2026-05-07 18:28 40.36277 108.10917 37256 ft 548 kts 84°
2026-05-07 18:28 40.36672 108.20898 37266 ft 549 kts 84°
2026-05-07 18:29 40.37059 108.30872 37266 ft 548 kts 84°
2026-05-07 18:29 40.37436 108.40825 37266 ft 548 kts 84°
2026-05-07 18:30 40.37805 108.50781 37272 ft 549 kts 84°
2026-05-07 18:30 40.38168 108.60800 37284 ft 550 kts 84°
2026-05-07 18:31 40.38524 108.70885 37251 ft 550 kts 84°
2026-05-07 18:31 40.38868 108.80857 37278 ft 550 kts 85°
2026-05-07 18:32 40.39195 108.90599 37255 ft 548 kts 85°
2026-05-07 18:32 40.39521 109.00560 37256 ft 546 kts 84°
2026-05-07 18:33 40.39837 109.10470 37258 ft 548 kts 85°
2026-05-07 18:33 40.40148 109.20466 37283 ft 550 kts 85°
2026-05-07 18:34 40.40447 109.30402 37262 ft 546 kts 85°
2026-05-07 18:34 40.40739 109.40332 37267 ft 546 kts 84°
2026-05-07 18:35 40.41022 109.50278 37274 ft 546 kts 85°
2026-05-07 18:35 40.41295 109.60160 37277 ft 548 kts 85°
2026-05-07 18:36 40.41561 109.70119 37257 ft 545 kts 85°
2026-05-07 18:36 40.41799 109.79317 37249 ft 546 kts 85°
2026-05-07 18:37 40.42044 109.89076 37265 ft 545 kts 85°
2026-05-07 18:37 40.42276 109.98654 37265 ft 544 kts 86°
2026-05-07 18:38 40.42253 110.08669 37274 ft 546 kts 88°
2026-05-07 18:38 40.42181 110.18624 37276 ft 545 kts 88°
2026-05-07 18:39 40.42109 110.28648 37280 ft 546 kts 88°
2026-05-07 18:39 40.42033 110.38537 37282 ft 546 kts 87°
2026-05-07 18:40 40.41952 110.48476 37283 ft 545 kts 88°
2026-05-07 18:40 40.41864 110.58446 37278 ft 545 kts 88°
2026-05-07 18:41 40.41768 110.68472 37270 ft 547 kts 88°
2026-05-07 18:41 40.41663 110.78490 37279 ft 548 kts 88°
2026-05-07 18:42 40.41552 110.88312 37273 ft 545 kts 88°
2026-05-07 18:42 40.41430 110.98435 37286 ft 547 kts 88°
2026-05-07 18:43 40.41302 111.08375 37286 ft 547 kts 88°
2026-05-07 18:43 40.41163 111.18434 37292 ft 547 kts 88°
2026-05-07 18:44 40.41015 111.28535 37299 ft 547 kts 88°
2026-05-07 18:44 40.40858 111.38578 37298 ft 547 kts 88°
2026-05-07 18:45 40.40691 111.48619 37309 ft 546 kts 88°
2026-05-07 18:45 40.40515 111.58687 37307 ft 545 kts 88°
2026-05-07 18:46 40.40331 111.68761 37303 ft 547 kts 88°
2026-05-07 18:46 40.40138 111.78825 37303 ft 547 kts 88°
2026-05-07 18:47 40.39932 111.88858 37303 ft 547 kts 90°
2026-05-07 18:47 40.38871 111.97317 37312 ft 550 kts 105°
2026-05-07 18:48 40.35800 112.06278 37314 ft 551 kts 124°
2026-05-07 18:48 40.30876 112.13909 37316 ft 546 kts 142°
2026-05-07 18:49 40.24663 112.19357 37315 ft 533 kts 160°
2026-05-07 18:49 40.17709 112.22285 37320 ft 518 kts 178°
2026-05-07 18:49 40.14027 112.22731 37319 ft 506 kts 187°
2026-05-07 18:50 40.10549 112.22472 37316 ft 495 kts 196°
2026-05-07 18:50 40.07123 112.21527 37316 ft 484 kts 206°
2026-05-07 18:50 40.03974 112.19958 37314 ft 471 kts 215°
2026-05-07 18:51 39.98117 112.16000 37331 ft 472 kts 210°
2026-05-07 18:51 39.94929 112.14684 37332 ft 487 kts 201°
2026-05-07 18:51 39.91525 112.13987 37327 ft 498 kts 192°
2026-05-07 18:52 39.84458 112.14481 37334 ft 514 kts 181°
2026-05-07 18:52 39.77332 112.15611 37338 ft 515 kts 181°
2026-05-07 18:53 39.70401 112.16716 37337 ft 516 kts 181°
2026-05-07 18:53 39.63365 112.17834 37346 ft 516 kts 181°
2026-05-07 18:54 39.56343 112.18951 37338 ft 514 kts 182°
2026-05-07 18:54 39.49161 112.20087 37348 ft 519 kts 182°
2026-05-07 18:55 39.41985 112.21744 37337 ft 522 kts 177°
2026-05-07 18:55 39.34794 112.23563 37340 ft 522 kts 178°
2026-05-07 18:56 39.27621 112.25349 37351 ft 524 kts 178°
2026-05-07 18:56 39.20452 112.27123 37355 ft 521 kts 179°
2026-05-07 18:57 39.13293 112.28879 37359 ft 522 kts 179°
2026-05-07 18:57 39.06792 112.30471 37369 ft 522 kts 179°